Wetterdaten: Montag, 11.09.2017
Datum Zeit Temp. Aussen Temp. o. S. +5cm Feuchte Auss BlattFeu 1 Luftdruck Regen Sonnenschein Regendauer Solar Windben Empfang
11.09.2017 00:00 14,5 C 14,4 C 13,3 C 82 % 0 lf 997,9 hPa 0,0 l/m 0 min 0 min 5 W/m 23,0 km/h (4 Bft) 91,49 %
11.09.2017 00:02 14,5 C 14,4 C 12,8 C 82 % 0 lf 997,9 hPa 0,0 l/m 0 min 0 min 5 W/m 18,8 km/h (3 Bft) 86,49 %
11.09.2017 00:04 14,5 C 14,4 C 12,8 C 82 % 0 lf 997,9 hPa 0,0 l/m 0 min 0 min 5 W/m 20,9 km/h (4 Bft) 91,49 %
11.09.2017 00:08 14,5 C 14,4 C 13,3 C 82 % 0 lf 997,7 hPa 0,0 l/m 0 min 0 min 5 W/m 25,1 km/h (4 Bft) 93,75 %
11.09.2017 00:10 14,6 C 14,4 C 13,3 C 82 % 0 lf 997,7 hPa 0,0 l/m 0 min 0 min 0 W/m 20,9 km/h (4 Bft) 91,49 %
11.09.2017 00:12 14,6 C 14,4 C 13,3 C 82 % 0 lf 997,7 hPa 0,0 l/m 0 min 0 min 0 W/m 16,7 km/h (3 Bft) 95,74 %
11.09.2017 00:14 14,6 C 14,4 C 13,3 C 82 % 0 lf 997,7 hPa 0,0 l/m 0 min 0 min 3 W/m 23,0 km/h (4 Bft) 95,65 %
11.09.2017 00:16 14,6 C 14,4 C 13,3 C 82 % 0 lf 997,7 hPa 0,0 l/m 0 min 0 min 0 W/m 23,0 km/h (4 Bft) 93,62 %
11.09.2017 00:18 14,6 C 14,4 C 13,3 C 82 % 0 lf 997,7 hPa 0,0 l/m 0 min 0 min 0 W/m 23,0 km/h (4 Bft) 95,74 %
11.09.2017 00:20 14,6 C 14,4 C 13,3 C 81 % 0 lf 997,7 hPa 0,0 l/m 0 min 0 min 0 W/m 29,3 km/h (5 Bft) 95,74 %
11.09.2017 00:22 14,6 C 14,4 C 13,3 C 81 % 0 lf 997,6 hPa 0,0 l/m 0 min 0 min 0 W/m 25,1 km/h (4 Bft) 95,74 %
11.09.2017 00:24 14,6 C 14,4 C 13,3 C 81 % 0 lf 997,5 hPa 0,0 l/m 0 min 0 min 0 W/m 20,9 km/h (4 Bft) 91,49 %
11.09.2017 00:26 14,6 C 14,4 C 13,3 C 81 % 0 lf 997,5 hPa 0,0 l/m 0 min 0 min 0 W/m 20,9 km/h (4 Bft) 97,83 %
11.09.2017 00:28 14,6 C 14,4 C 13,3 C 81 % 0 lf 997,5 hPa 0,0 l/m 0 min 0 min 0 W/m 23,0 km/h (4 Bft) 95,74 %
11.09.2017 00:30 14,6 C 14,4 C 13,3 C 81 % 0 lf 997,4 hPa 0,0 l/m 0 min 0 min 0 W/m 25,1 km/h (4 Bft) 97,87 %
11.09.2017 00:32 14,6 C 14,4 C 12,8 C 81 % 0 lf 997,3 hPa 0,0 l/m 0 min 0 min 0 W/m 18,8 km/h (3 Bft) 97,87 %
11.09.2017 00:34 14,6 C 14,4 C 13,3 C 81 % 0 lf 997,4 hPa 0,0 l/m 0 min 0 min 0 W/m 25,1 km/h (4 Bft) 97,87 %
11.09.2017 00:36 14,6 C 14,4 C 13,3 C 81 % 0 lf 997,2 hPa 0,0 l/m 0 min 0 min 0 W/m 20,9 km/h (4 Bft) 95,74 %
11.09.2017 00:38 14,6 C 14,4 C 13,3 C 81 % 0 lf 997,2 hPa 0,0 l/m 0 min 0 min 0 W/m 18,8 km/h (3 Bft) 97,83 %
11.09.2017 00:40 14,6 C 14,4 C 13,3 C 81 % 0 lf 997,2 hPa 0,0 l/m 0 min 0 min 0 W/m 31,4 km/h (5 Bft) 97,87 %
11.09.2017 00:42 14,6 C 14,4 C 13,3 C 81 % 0 lf 997,2 hPa 0,0 l/m 0 min 0 min 0 W/m 16,7 km/h (3 Bft) 97,87 %
11.09.2017 00:44 14,6 C 14,4 C 13,3 C 81 % 0 lf 997,2 hPa 0,0 l/m 0 min 0 min 0 W/m 23,0 km/h (4 Bft) 100,00 %
11.09.2017 00:46 14,6 C 14,4 C 13,3 C 81 % 0 lf 997,1 hPa 0,0 l/m 0 min 0 min 0 W/m 20,9 km/h (4 Bft) 100,00 %
11.09.2017 00:48 14,6 C 14,4 C 13,3 C 81 % 0 lf 997,2 hPa 0,0 l/m 0 min 0 min 0 W/m 20,9 km/h (4 Bft) 100,00 %
11.09.2017 00:50 14,6 C 14,4 C 13,3 C 81 % 0 lf 997,2 hPa 0,0 l/m 0 min 0 min 0 W/m 27,2 km/h (4 Bft) 100,00 %
11.09.2017 00:52 14,6 C 14,4 C 13,3 C 81 % 0 lf 997,1 hPa 0,0 l/m 0 min 0 min 0 W/m 18,8 km/h (3 Bft) 97,87 %
11.09.2017 00:54 14,6 C 14,4 C 13,3 C 81 % 0 lf 997,0 hPa 0,0 l/m 0 min 0 min 0 W/m 20,9 km/h (4 Bft) 97,92 %
11.09.2017 00:56 14,6 C 14,4 C 12,8 C 81 % 0 lf 997,0 hPa 0,0 l/m 0 min 0 min 0 W/m 12,6 km/h (3 Bft) 97,87 %
11.09.2017 00:58 14,6 C 14,4 C 12,8 C 81 % 0 lf 997,0 hPa 0,0 l/m 0 min 0 min 0 W/m 23,0 km/h (4 Bft) 97,87 %
11.09.2017 01:00 14,6 C 14,4 C 12,8 C 81 % 0 lf 996,9 hPa 0,0 l/m 0 min 0 min 0 W/m 12,6 km/h (3 Bft) 100,00 %
11.09.2017 01:02 14,6 C 14,4 C 12,8 C 81 % 0 lf 997,0 hPa 0,0 l/m 0 min 0 min 0 W/m 23,0 km/h (4 Bft) 100,00 %
11.09.2017 01:04 14,6 C 14,4 C 12,8 C 81 % 0 lf 996,9 hPa 0,0 l/m 0 min 0 min 0 W/m 25,1 km/h (4 Bft) 100,00 %
11.09.2017 01:06 14,6 C 14,4 C 12,8 C 81 % 0 lf 996,8 hPa 0,0 l/m 0 min 0 min 0 W/m 16,7 km/h (3 Bft) 100,00 %
11.09.2017 01:08 14,6 C 14,4 C 12,8 C 82 % 0 lf 996,8 hPa 0,0 l/m 0 min 0 min 0 W/m 23,0 km/h (4 Bft) 97,87 %
11.09.2017 01:10 14,6 C 14,4 C 12,8 C 82 % 0 lf 996,8 hPa 0,0 l/m 0 min 0 min 0 W/m 31,4 km/h (5 Bft) 100,00 %
11.09.2017 01:12 14,6 C 14,4 C 12,8 C 82 % 0 lf 996,8 hPa 0,0 l/m 0 min 0 min 0 W/m 18,8 km/h (3 Bft) 97,83 %
11.09.2017 01:14 14,6 C 14,4 C 13,3 C 82 % 0 lf 996,8 hPa 0,0 l/m 0 min 0 min 0 W/m 18,8 km/h (3 Bft) 100,00 %
11.09.2017 01:16 14,6 C 14,4 C 13,3 C 82 % 0 lf 996,8 hPa 0,0 l/m 0 min 0 min 0 W/m 25,1 km/h (4 Bft) 95,74 %
11.09.2017 01:18 14,6 C 14,4 C 13,3 C 82 % 0 lf 996,7 hPa 0,0 l/m 0 min 0 min 0 W/m 23,0 km/h (4 Bft) 93,62 %
11.09.2017 01:20 14,6 C 14,4 C 13,3 C 82 % 0 lf 996,7 hPa 0,0 l/m 0 min 0 min 0 W/m 20,9 km/h (4 Bft) 100,00 %
11.09.2017 01:22 14,6 C 14,4 C 13,3 C 82 % 0 lf 996,7 hPa 0,0 l/m 0 min 0 min 0 W/m 20,9 km/h (4 Bft) 100,00 %
11.09.2017 01:24 14,6 C 14,4 C 13,3 C 82 % 0 lf 996,7 hPa 0,0 l/m 0 min 0 min 0 W/m 16,7 km/h (3 Bft) 100,00 %
11.09.2017 01:26 14,6 C 14,4 C 13,3 C 82 % 0 lf 996,6 hPa 0,0 l/m 0 min 0 min 0 W/m 16,7 km/h (3 Bft) 100,00 %
11.09.2017 01:28 14,6 C 14,4 C 13,3 C 82 % 0 lf 996,6 hPa 0,0 l/m 0 min 0 min 0 W/m 14,6 km/h (3 Bft) 97,87 %
11.09.2017 01:30 14,6 C 14,4 C 13,3 C 82 % 0 lf 996,6 hPa 0,0 l/m 0 min 0 min 0 W/m 20,9 km/h (4 Bft) 97,87 %
11.09.2017 01:32 14,6 C 14,4 C 13,3 C 82 % 0 lf 996,6 hPa 0,0 l/m 0 min 0 min 0 W/m 14,6 km/h (3 Bft) 97,87 %
11.09.2017 01:34 14,6 C 14,4 C 13,3 C 82 % 0 lf 996,6 hPa 0,0 l/m 0 min 0 min 0 W/m 18,8 km/h (3 Bft) 97,87 %
11.09.2017 01:36 14,7 C 14,4 C 13,3 C 82 % 0 lf 996,6 hPa 0,0 l/m 0 min 0 min 0 W/m 16,7 km/h (3 Bft) 97,83 %
11.09.2017 01:38 14,7 C 14,4 C 13,3 C 82 % 0 lf 996,5 hPa 0,0 l/m 0 min 0 min 0 W/m 23,0 km/h (4 Bft) 97,87 %
11.09.2017 01:40 14,7 C 14,4 C 13,3 C 82 % 0 lf 996,5 hPa 0,0 l/m 0 min 0 min 0 W/m 25,1 km/h (4 Bft) 97,87 %
11.09.2017 01:42 14,7 C 14,4 C 13,3 C 82 % 0 lf 996,5 hPa 0,0 l/m 0 min 0 min 0 W/m 20,9 km/h (4 Bft) 95,74 %
11.09.2017 01:44 14,7 C 14,4 C 13,3 C 82 % 0 lf 996,5 hPa 0,0 l/m 0 min 2 min 0 W/m 18,8 km/h (3 Bft) 97,87 %
11.09.2017 01:46 14,7 C 14,4 C 13,3 C 82 % 0 lf 996,5 hPa 0,0 l/m 0 min 0 min 0 W/m 18,8 km/h (3 Bft) 95,74 %
11.09.2017 01:48 14,8 C 14,4 C 13,3 C 82 % 0 lf 996,5 hPa 0,0 l/m 0 min 0 min 0 W/m 18,8 km/h (3 Bft) 97,83 %
11.09.2017 01:50 14,8 C 14,4 C 13,3 C 82 % 0 lf 996,5 hPa 0,0 l/m 0 min 0 min 0 W/m 20,9 km/h (4 Bft) 95,74 %
11.09.2017 01:52 14,8 C 15,0 C 13,3 C 82 % 0 lf 996,4 hPa 0,0 l/m 0 min 0 min 0 W/m 23,0 km/h (4 Bft) 95,74 %
11.09.2017 01:54 14,8 C 15,0 C 13,9 C 82 % 0 lf 996,4 hPa 0,0 l/m 0 min 0 min 0 W/m 20,9 km/h (4 Bft) 93,62 %
11.09.2017 01:56 14,8 C 15,0 C 13,9 C 82 % 0 lf 996,4 hPa 0,0 l/m 0 min 0 min 0 W/m 20,9 km/h (4 Bft) 93,62 %
11.09.2017 01:58 14,9 C 15,0 C 13,9 C 82 % 0 lf 996,4 hPa 0,0 l/m 0 min 0 min 0 W/m 25,1 km/h (4 Bft) 91,49 %
11.09.2017 02:00 14,9 C 15,0 C 13,9 C 82 % 0 lf 996,3 hPa 0,0 l/m 0 min 0 min 0 W/m 20,9 km/h (4 Bft) 93,48 %
11.09.2017 02:02 14,9 C 15,0 C 13,9 C 82 % 0 lf 996,3 hPa 0,0 l/m 0 min 0 min 0 W/m 27,2 km/h (4 Bft) 97,87 %
11.09.2017 02:04 14,9 C 15,0 C 13,9 C 82 % 0 lf 996,2 hPa 0,0 l/m 0 min 0 min 0 W/m 18,8 km/h (3 Bft) 97,87 %
11.09.2017 02:06 15,0 C 15,0 C 13,9 C 82 % 0 lf 996,3 hPa 0,0 l/m 0 min 0 min 0 W/m 25,1 km/h (4 Bft) 97,87 %
11.09.2017 02:08 15,1 C 15,0 C 13,9 C 82 % 0 lf 996,3 hPa 0,0 l/m 0 min 0 min 0 W/m 12,6 km/h (3 Bft) 97,87 %
11.09.2017 02:10 15,1 C 15,0 C 13,9 C 81 % 0 lf 996,2 hPa 0,0 l/m 0 min 0 min 0 W/m 29,3 km/h (5 Bft) 95,74 %
11.09.2017 02:12 15,2 C 15,6 C 13,9 C 81 % 0 lf 996,2 hPa 0,0 l/m 0 min 0 min 0 W/m 18,8 km/h (3 Bft) 97,83 %
11.09.2017 02:14 15,2 C 15,0 C 13,9 C 81 % 0 lf 996,1 hPa 0,0 l/m 0 min 0 min 0 W/m 12,6 km/h (3 Bft) 95,74 %
11.09.2017 02:16 15,2 C 15,0 C 13,9 C 81 % 3 lf 996,0 hPa 0,0 l/m 0 min 0 min 0 W/m 33,5 km/h (5 Bft) 95,74 %
11.09.2017 02:18 15,3 C 15,0 C 13,3 C 82 % 0 lf 996,1 hPa 0,0 l/m 0 min 0 min 0 W/m 41,8 km/h (6 Bft) 97,87 %
11.09.2017 02:20 15,3 C 15,0 C 13,3 C 82 % 0 lf 996,0 hPa 0,0 l/m 0 min 0 min 0 W/m 50,2 km/h (7 Bft) 97,87 %
11.09.2017 02:22 15,3 C 15,0 C 13,3 C 82 % 0 lf 996,0 hPa 0,0 l/m 0 min 0 min 0 W/m 37,7 km/h (5 Bft) 95,65 %
11.09.2017 02:24 15,3 C 15,0 C 13,9 C 82 % 0 lf 995,9 hPa 0,0 l/m 0 min 0 min 0 W/m 35,6 km/h (5 Bft) 97,87 %
11.09.2017 02:26 15,3 C 15,0 C 13,9 C 82 % 0 lf 995,9 hPa 0,0 l/m 0 min 0 min 0 W/m 23,0 km/h (4 Bft) 100,00 %
11.09.2017 02:28 15,3 C 15,0 C 13,9 C 82 % 0 lf 996,1 hPa 0,0 l/m 0 min 0 min 0 W/m 41,8 km/h (6 Bft) 93,62 %
11.09.2017 02:30 15,4 C 15,0 C 13,9 C 82 % 0 lf 995,8 hPa 0,0 l/m 0 min 0 min 0 W/m 23,0 km/h (4 Bft) 97,87 %
11.09.2017 02:32 15,4 C 15,0 C 13,9 C 82 % 0 lf 995,9 hPa 0,0 l/m 0 min 0 min 0 W/m 31,4 km/h (5 Bft) 93,62 %
11.09.2017 02:34 15,4 C 15,0 C 13,9 C 82 % 0 lf 995,8 hPa 0,0 l/m 0 min 0 min 0 W/m 27,2 km/h (4 Bft) 100,00 %
11.09.2017 02:36 15,4 C 15,0 C 13,9 C 82 % 0 lf 995,9 hPa 0,0 l/m 0 min 0 min 0 W/m 43,9 km/h (6 Bft) 97,87 %
11.09.2017 02:38 15,4 C 15,0 C 13,9 C 82 % 0 lf 995,8 hPa 0,0 l/m 0 min 0 min 0 W/m 33,5 km/h (5 Bft) 97,87 %
11.09.2017 02:40 15,4 C 15,0 C 13,9 C 83 % 0 lf 995,8 hPa 0,0 l/m 0 min 0 min 0 W/m 31,4 km/h (5 Bft) 100,00 %
11.09.2017 02:42 15,3 C 15,0 C 13,9 C 83 % 0 lf 995,8 hPa 0,0 l/m 0 min 0 min 0 W/m 33,5 km/h (5 Bft) 97,92 %
11.09.2017 02:44 15,3 C 15,0 C 13,9 C 83 % 0 lf 995,8 hPa 0,0 l/m 0 min 0 min 0 W/m 23,0 km/h (4 Bft) 97,87 %
11.09.2017 02:46 15,3 C 15,0 C 13,9 C 83 % 0 lf 995,8 hPa 0,0 l/m 0 min 0 min 0 W/m 37,7 km/h (5 Bft) 100,00 %
11.09.2017 02:48 15,3 C 15,0 C 13,9 C 83 % 0 lf 995,8 hPa 0,0 l/m 0 min 0 min 0 W/m 23,0 km/h (4 Bft) 97,87 %
11.09.2017 02:50 15,3 C 15,0 C 13,9 C 83 % 0 lf 995,7 hPa 0,0 l/m 0 min 0 min 0 W/m 37,7 km/h (5 Bft) 97,87 %
11.09.2017 02:52 15,3 C 15,0 C 13,9 C 83 % 0 lf 995,7 hPa 0,0 l/m 0 min 0 min 0 W/m 27,2 km/h (4 Bft) 97,87 %
11.09.2017 02:54 15,3 C 15,0 C 13,9 C 83 % 0 lf 995,8 hPa 0,0 l/m 0 min 0 min 0 W/m 33,5 km/h (5 Bft) 97,87 %
11.09.2017 02:56 15,3 C 15,0 C 13,9 C 83 % 0 lf 995,6 hPa 0,0 l/m 0 min 0 min 0 W/m 23,0 km/h (4 Bft) 93,62 %
11.09.2017 02:58 15,3 C 15,0 C 13,9 C 83 % 0 lf 995,6 hPa 0,0 l/m 0 min 0 min 0 W/m 33,5 km/h (5 Bft) 97,83 %
11.09.2017 03:00 15,3 C 15,0 C 13,9 C 83 % 0 lf 995,7 hPa 0,0 l/m 0 min 0 min 0 W/m 31,4 km/h (5 Bft) 97,87 %
11.09.2017 03:02 15,3 C 15,0 C 13,9 C 83 % 0 lf 995,7 hPa 0,0 l/m 0 min 0 min 0 W/m 29,3 km/h (5 Bft) 97,87 %
11.09.2017 03:04 15,2 C 15,0 C 13,9 C 83 % 0 lf 995,7 hPa 0,0 l/m 0 min 0 min 0 W/m 23,0 km/h (4 Bft) 97,92 %
11.09.2017 03:06 15,2 C 15,0 C 13,9 C 83 % 0 lf 995,7 hPa 0,0 l/m 0 min 0 min 0 W/m 27,2 km/h (4 Bft) 93,62 %
11.09.2017 03:08 15,2 C 15,0 C 13,9 C 83 % 0 lf 995,7 hPa 0,0 l/m 0 min 0 min 0 W/m 33,5 km/h (5 Bft) 95,74 %
11.09.2017 03:10 15,2 C 15,0 C 13,9 C 83 % 0 lf 995,6 hPa 0,0 l/m 0 min 0 min 0 W/m 29,3 km/h (5 Bft) 95,74 %
11.09.2017 03:12 15,3 C 15,0 C 13,9 C 83 % 0 lf 995,7 hPa 0,0 l/m 0 min 0 min 0 W/m 25,1 km/h (4 Bft) 95,74 %
11.09.2017 03:14 15,2 C 15,0 C 13,9 C 83 % 0 lf 995,6 hPa 0,0 l/m 0 min 0 min 0 W/m 29,3 km/h (5 Bft) 93,62 %
11.09.2017 03:16 15,3 C 15,0 C 13,9 C 83 % 0 lf 995,6 hPa 0,0 l/m 0 min 0 min 0 W/m 33,5 km/h (5 Bft) 93,48 %
11.09.2017 03:18 15,3 C 15,0 C 13,9 C 83 % 0 lf 995,6 hPa 0,0 l/m 0 min 0 min 0 W/m 31,4 km/h (5 Bft) 95,74 %
11.09.2017 03:20 15,3 C 15,0 C 13,9 C 83 % 0 lf 995,6 hPa 0,0 l/m 0 min 0 min 0 W/m 23,0 km/h (4 Bft) 95,74 %
11.09.2017 03:22 15,3 C 15,0 C 13,9 C 83 % 0 lf 995,7 hPa 0,0 l/m 0 min 0 min 0 W/m 31,4 km/h (5 Bft) 93,62 %
11.09.2017 03:24 15,3 C 15,0 C 13,9 C 83 % 0 lf 995,7 hPa 0,0 l/m 0 min 0 min 0 W/m 43,9 km/h (6 Bft) 95,74 %
11.09.2017 03:26 15,3 C 15,0 C 13,9 C 83 % 0 lf 995,7 hPa 0,0 l/m 0 min 0 min 0 W/m 29,3 km/h (5 Bft) 91,49 %
11.09.2017 03:28 15,3 C 15,0 C 13,9 C 83 % 0 lf 995,6 hPa 0,0 l/m 0 min 0 min 0 W/m 27,2 km/h (4 Bft) 93,48 %
11.09.2017 03:30 15,3 C 15,0 C 13,9 C 83 % 0 lf 995,7 hPa 0,0 l/m 0 min 0 min 0 W/m 14,6 km/h (3 Bft) 91,49 %
11.09.2017 03:32 15,3 C 15,0 C 13,9 C 84 % 0 lf 995,5 hPa 0,0 l/m 0 min 0 min 0 W/m 37,7 km/h (5 Bft) 93,62 %
11.09.2017 03:34 15,3 C 15,0 C 13,9 C 84 % 0 lf 995,6 hPa 0,0 l/m 0 min 0 min 0 W/m 29,3 km/h (5 Bft) 91,49 %
11.09.2017 03:36 15,3 C 15,0 C 13,9 C 84 % 0 lf 995,6 hPa 0,0 l/m 0 min 0 min 0 W/m 27,2 km/h (4 Bft) 91,49 %
11.09.2017 03:38 15,3 C 15,0 C 13,9 C 84 % 0 lf 995,7 hPa 0,0 l/m 0 min 0 min 0 W/m 29,3 km/h (5 Bft) 95,74 %
11.09.2017 03:40 15,3 C 15,0 C 13,9 C 84 % 0 lf 995,6 hPa 0,0 l/m 0 min 0 min 0 W/m 31,4 km/h (5 Bft) 93,48 %
11.09.2017 03:42 15,3 C 15,0 C 13,9 C 84 % 0 lf 995,4 hPa 0,0 l/m 0 min 0 min 0 W/m 25,1 km/h (4 Bft) 97,87 %
11.09.2017 03:44 15,2 C 15,0 C 13,9 C 84 % 0 lf 995,4 hPa 0,0 l/m 0 min 0 min 0 W/m 23,0 km/h (4 Bft) 95,74 %
11.09.2017 03:46 15,2 C 15,0 C 13,9 C 84 % 0 lf 995,3 hPa 0,0 l/m 0 min 0 min 0 W/m 23,0 km/h (4 Bft) 95,74 %
11.09.2017 03:48 15,2 C 15,0 C 13,9 C 84 % 0 lf 995,3 hPa 0,0 l/m 0 min 0 min 0 W/m 25,1 km/h (4 Bft) 95,74 %
11.09.2017 03:50 15,2 C 15,0 C 13,9 C 84 % 0 lf 995,4 hPa 0,0 l/m 0 min 0 min 0 W/m 29,3 km/h (5 Bft) 95,74 %
11.09.2017 03:52 15,2 C 15,0 C 13,9 C 84 % 0 lf 995,4 hPa 0,0 l/m 0 min 0 min 0 W/m 25,1 km/h (4 Bft) 95,65 %
11.09.2017 03:54 15,2 C 15,0 C 13,9 C 84 % 0 lf 995,3 hPa 0,0 l/m 0 min 0 min 0 W/m 29,3 km/h (5 Bft) 95,74 %
11.09.2017 03:56 15,2 C 15,0 C 13,9 C 84 % 0 lf 995,4 hPa 0,0 l/m 0 min 0 min 0 W/m 29,3 km/h (5 Bft) 95,74 %
11.09.2017 03:58 15,2 C 15,0 C 13,9 C 84 % 0 lf 995,4 hPa 0,0 l/m 0 min 0 min 0 W/m 25,1 km/h (4 Bft) 93,62 %
11.09.2017 04:00 15,2 C 15,0 C 13,9 C 84 % 0 lf 995,2 hPa 0,0 l/m 0 min 0 min 0 W/m 25,1 km/h (4 Bft) 97,87 %
11.09.2017 04:02 15,2 C 15,0 C 13,9 C 84 % 0 lf 995,2 hPa 0,0 l/m 0 min 0 min 0 W/m 33,5 km/h (5 Bft) 100,00 %
11.09.2017 04:04 15,2 C 15,0 C 13,9 C 84 % 0 lf 995,1 hPa 0,0 l/m 0 min 0 min 0 W/m 33,5 km/h (5 Bft) 97,83 %
11.09.2017 04:06 15,2 C 15,0 C 13,9 C 84 % 0 lf 995,2 hPa 0,0 l/m 0 min 0 min 0 W/m 29,3 km/h (5 Bft) 100,00 %
11.09.2017 04:08 15,2 C 15,0 C 13,9 C 84 % 0 lf 995,0 hPa 0,0 l/m 0 min 0 min 0 W/m 23,0 km/h (4 Bft) 100,00 %
11.09.2017 04:10 15,2 C 15,0 C 13,9 C 84 % 0 lf 995,1 hPa 0,0 l/m 0 min 0 min 0 W/m 20,9 km/h (4 Bft) 100,00 %
11.09.2017 04:12 15,2 C 15,0 C 13,9 C 84 % 0 lf 995,1 hPa 0,0 l/m 0 min 0 min 0 W/m 25,1 km/h (4 Bft) 100,00 %
11.09.2017 04:14 15,2 C 15,0 C 13,9 C 84 % 0 lf 995,1 hPa 0,0 l/m 0 min 0 min 0 W/m 31,4 km/h (5 Bft) 100,00 %
11.09.2017 04:16 15,2 C 15,0 C 13,9 C 84 % 0 lf 995,1 hPa 0,0 l/m 0 min 0 min 0 W/m 35,6 km/h (5 Bft) 100,00 %
11.09.2017 04:18 15,2 C 15,0 C 13,9 C 84 % 0 lf 995,0 hPa 0,0 l/m 0 min 0 min 0 W/m 37,7 km/h (5 Bft) 97,87 %
11.09.2017 04:20 15,2 C 15,0 C 13,9 C 84 % 0 lf 995,0 hPa 0,0 l/m 0 min 0 min 0 W/m 31,4 km/h (5 Bft) 100,00 %
11.09.2017 04:22 15,2 C 15,0 C 13,9 C 84 % 0 lf 995,2 hPa 0,0 l/m 0 min 0 min 2 W/m 35,6 km/h (5 Bft) 97,87 %
11.09.2017 04:24 15,2 C 15,0 C 13,9 C 84 % 0 lf 995,1 hPa 0,0 l/m 0 min 0 min 0 W/m 33,5 km/h (5 Bft) 100,00 %
11.09.2017 04:26 15,2 C 15,0 C 13,3 C 85 % 0 lf 995,1 hPa 0,0 l/m 0 min 0 min 0 W/m 37,7 km/h (5 Bft) 97,83 %
11.09.2017 04:28 15,2 C 15,0 C 13,3 C 85 % 0 lf 995,1 hPa 0,0 l/m 0 min 0 min 0 W/m 37,7 km/h (5 Bft) 100,00 %
11.09.2017 04:30 15,2 C 14,4 C 13,3 C 85 % 1 lf 995,0 hPa 0,0 l/m 0 min 0 min 0 W/m 29,3 km/h (5 Bft) 97,87 %
11.09.2017 04:32 15,2 C 14,4 C 12,8 C 85 % 3 lf 995,1 hPa 0,0 l/m 0 min 0 min 0 W/m 29,3 km/h (5 Bft) 93,62 %
11.09.2017 04:34 15,1 C 13,9 C 12,8 C 86 % 2 lf 995,1 hPa 0,0 l/m 0 min 0 min 0 W/m 27,2 km/h (4 Bft) 97,87 %
11.09.2017 04:36 15,1 C 13,9 C 12,8 C 86 % 2 lf 995,1 hPa 0,0 l/m 0 min 0 min 0 W/m 33,5 km/h (5 Bft) 97,87 %
11.09.2017 04:38 15,1 C 13,9 C 12,8 C 86 % 2 lf 995,0 hPa 0,0 l/m 0 min 0 min 0 W/m 18,8 km/h (3 Bft) 97,83 %
11.09.2017 04:40 15,0 C 13,3 C 12,2 C 87 % 2 lf 995,1 hPa 0,0 l/m 0 min 0 min 0 W/m 35,6 km/h (5 Bft) 97,87 %
11.09.2017 04:42 14,9 C 13,3 C 12,2 C 87 % 3 lf 995,1 hPa 0,0 l/m 0 min 0 min 0 W/m 35,6 km/h (5 Bft) 97,87 %
11.09.2017 04:44 14,9 C 13,3 C 12,2 C 87 % 4 lf 995,1 hPa 0,0 l/m 0 min 0 min 0 W/m 29,3 km/h (5 Bft) 95,74 %
11.09.2017 04:46 14,8 C 13,3 C 12,2 C 88 % 4 lf 995,0 hPa 0,0 l/m 0 min 0 min 4 W/m 27,2 km/h (4 Bft) 95,74 %
11.09.2017 04:48 14,7 C 13,3 C 12,2 C 88 % 3 lf 994,9 hPa 0,0 l/m 0 min 0 min 5 W/m 31,4 km/h (5 Bft) 97,87 %
11.09.2017 04:50 14,7 C 13,3 C 12,2 C 88 % 2 lf 994,9 hPa 0,0 l/m 0 min 2 min 4 W/m 37,7 km/h (5 Bft) 95,65 %
11.09.2017 04:52 14,6 C 13,3 C 12,2 C 89 % 1 lf 994,9 hPa 0,0 l/m 0 min 0 min 2 W/m 27,2 km/h (4 Bft) 97,87 %
11.09.2017 04:54 14,5 C 13,3 C 12,2 C 89 % 1 lf 994,9 hPa 0,0 l/m 0 min 0 min 4 W/m 23,0 km/h (4 Bft) 97,87 %
11.09.2017 04:56 14,4 C 13,3 C 12,2 C 89 % 1 lf 995,0 hPa 0,0 l/m 0 min 0 min 5 W/m 20,9 km/h (4 Bft) 97,87 %
11.09.2017 04:58 14,4 C 13,3 C 12,2 C 90 % 1 lf 994,9 hPa 0,0 l/m 0 min 0 min 5 W/m 16,7 km/h (3 Bft) 95,74 %
11.09.2017 05:00 14,4 C 13,3 C 12,2 C 90 % 0 lf 994,9 hPa 0,0 l/m 0 min 0 min 5 W/m 23,0 km/h (4 Bft) 97,87 %
11.09.2017 05:02 14,3 C 13,3 C 12,2 C 90 % 0 lf 995,0 hPa 0,0 l/m 0 min 0 min 5 W/m 37,7 km/h (5 Bft) 97,83 %
11.09.2017 05:04 14,3 C 13,3 C 12,2 C 90 % 1 lf 994,8 hPa 0,0 l/m 0 min 2 min 5 W/m 23,0 km/h (4 Bft) 95,74 %
11.09.2017 05:06 14,2 C 13,3 C 12,2 C 90 % 4 lf 994,9 hPa 0,0 l/m 0 min 2 min 5 W/m 23,0 km/h (4 Bft) 97,87 %
11.09.2017 05:08 14,2 C 13,3 C 12,2 C 91 % 3 lf 994,9 hPa 0,0 l/m 0 min 2 min 5 W/m 33,5 km/h (5 Bft) 97,87 %
11.09.2017 05:10 14,2 C 13,3 C 12,2 C 91 % 1 lf 995,0 hPa 0,0 l/m 0 min 0 min 5 W/m 29,3 km/h (5 Bft) 97,87 %
11.09.2017 05:12 14,2 C 13,3 C 12,2 C 91 % 0 lf 994,9 hPa 0,0 l/m 0 min 0 min 5 W/m 33,5 km/h (5 Bft) 97,87 %
11.09.2017 05:14 14,2 C 13,9 C 12,2 C 91 % 0 lf 994,9 hPa 0,0 l/m 0 min 2 min 5 W/m 20,9 km/h (4 Bft) 97,83 %
11.09.2017 05:16 14,2 C 13,9 C 12,2 C 91 % 0 lf 994,9 hPa 0,0 l/m 0 min 0 min 5 W/m 16,7 km/h (3 Bft) 97,87 %
11.09.2017 05:18 14,2 C 13,9 C 12,2 C 91 % 0 lf 994,8 hPa 0,0 l/m 0 min 0 min 5 W/m 18,8 km/h (3 Bft) 95,74 %
11.09.2017 05:20 14,2 C 13,9 C 12,2 C 91 % 0 lf 994,8 hPa 0,0 l/m 0 min 0 min 5 W/m 20,9 km/h (4 Bft) 95,74 %
11.09.2017 05:22 14,2 C 13,9 C 12,2 C 91 % 0 lf 994,9 hPa 0,0 l/m 0 min 0 min 5 W/m 14,6 km/h (3 Bft) 97,87 %
11.09.2017 05:24 14,2 C 13,9 C 12,2 C 92 % 0 lf 994,8 hPa 0,0 l/m 0 min 0 min 5 W/m 14,6 km/h (3 Bft) 95,74 %
11.09.2017 05:26 14,2 C 13,9 C 12,2 C 92 % 0 lf 994,8 hPa 0,0 l/m 0 min 0 min 5 W/m 25,1 km/h (4 Bft) 97,83 %
11.09.2017 05:28 14,2 C 13,9 C 12,2 C 92 % 0 lf 994,8 hPa 0,0 l/m 0 min 0 min 5 W/m 14,6 km/h (3 Bft) 97,87 %
11.09.2017 05:30 14,1 C 13,3 C 12,2 C 92 % 0 lf 994,9 hPa 0,0 l/m 0 min 0 min 5 W/m 16,7 km/h (3 Bft) 97,87 %
11.09.2017 05:32 14,1 C 13,3 C 12,2 C 92 % 0 lf 994,9 hPa 0,0 l/m 0 min 0 min 0 W/m 20,9 km/h (4 Bft) 95,74 %
11.09.2017 05:34 14,1 C 13,9 C 12,2 C 92 % 0 lf 994,9 hPa 0,0 l/m 0 min 0 min 0 W/m 27,2 km/h (4 Bft) 91,49 %
11.09.2017 05:36 14,0 C 13,9 C 12,2 C 92 % 0 lf 994,9 hPa 0,0 l/m 0 min 0 min 0 W/m 20,9 km/h (4 Bft) 95,65 %
11.09.2017 05:38 14,0 C 13,9 C 12,2 C 92 % 0 lf 994,8 hPa 0,0 l/m 0 min 0 min 0 W/m 20,9 km/h (4 Bft) 97,87 %
11.09.2017 05:40 14,0 C 13,9 C 12,2 C 92 % 0 lf 994,8 hPa 0,0 l/m 0 min 0 min 0 W/m 31,4 km/h (5 Bft) 97,87 %
11.09.2017 05:42 13,9 C 13,9 C 12,2 C 92 % 0 lf 994,8 hPa 0,0 l/m 0 min 0 min 0 W/m 27,2 km/h (4 Bft) 95,74 %
11.09.2017 05:44 13,9 C 13,9 C 12,2 C 92 % 0 lf 994,8 hPa 0,0 l/m 0 min 0 min 0 W/m 20,9 km/h (4 Bft) 95,74 %
11.09.2017 05:46 13,9 C 13,9 C 12,2 C 92 % 0 lf 994,8 hPa 0,0 l/m 0 min 0 min 5 W/m 14,6 km/h (3 Bft) 91,49 %
11.09.2017 05:48 13,9 C 13,9 C 12,2 C 91 % 0 lf 994,8 hPa 0,0 l/m 0 min 0 min 2 W/m 18,8 km/h (3 Bft) 95,65 %
11.09.2017 05:50 13,9 C 13,9 C 12,8 C 91 % 0 lf 994,8 hPa 0,0 l/m 0 min 0 min 2 W/m 27,2 km/h (4 Bft) 93,62 %
11.09.2017 05:52 13,9 C 13,9 C 12,8 C 91 % 0 lf 994,8 hPa 0,0 l/m 0 min 0 min 0 W/m 18,8 km/h (3 Bft) 95,74 %
11.09.2017 05:54 13,9 C 13,9 C 12,8 C 91 % 0 lf 994,9 hPa 0,0 l/m 0 min 0 min 2 W/m 29,3 km/h (5 Bft) 97,87 %
11.09.2017 05:56 13,9 C 13,9 C 12,8 C 91 % 0 lf 994,8 hPa 0,0 l/m 0 min 0 min 0 W/m 27,2 km/h (4 Bft) 95,74 %
11.09.2017 05:58 14,0 C 13,9 C 12,8 C 92 % 0 lf 994,8 hPa 0,0 l/m 0 min 0 min 0 W/m 27,2 km/h (4 Bft) 97,87 %
11.09.2017 06:00 14,0 C 13,9 C 12,8 C 91 % 0 lf 994,9 hPa 0,0 l/m 0 min 0 min 0 W/m 25,1 km/h (4 Bft) 97,83 %
11.09.2017 06:02 14,0 C 13,9 C 12,8 C 91 % 0 lf 994,9 hPa 0,0 l/m 0 min 0 min 0 W/m 33,5 km/h (5 Bft) 97,87 %
11.09.2017 06:04 14,1 C 13,9 C 12,8 C 91 % 0 lf 994,9 hPa 0,0 l/m 0 min 0 min 0 W/m 23,0 km/h (4 Bft) 97,87 %
11.09.2017 06:06 14,1 C 13,9 C 12,8 C 91 % 0 lf 994,8 hPa 0,0 l/m 0 min 0 min 0 W/m 18,8 km/h (3 Bft) 97,87 %
11.09.2017 06:10 14,2 C 13,9 C 12,8 C 91 % 0 lf 994,8 hPa 0,0 l/m 0 min 0 min 0 W/m 25,1 km/h (4 Bft) 93,75 %
11.09.2017 06:12 14,2 C 13,9 C 12,8 C 91 % 0 lf 994,7 hPa 0,0 l/m 0 min 0 min 0 W/m 18,8 km/h (3 Bft) 95,65 %
11.09.2017 06:14 14,2 C 13,9 C 12,8 C 91 % 0 lf 994,7 hPa 0,0 l/m 0 min 0 min 0 W/m 20,9 km/h (4 Bft) 97,87 %
11.09.2017 06:16 14,2 C 13,9 C 12,8 C 91 % 0 lf 994,7 hPa 0,0 l/m 0 min 0 min 0 W/m 14,6 km/h (3 Bft) 95,74 %
11.09.2017 06:18 14,2 C 13,9 C 12,8 C 91 % 0 lf 994,7 hPa 0,0 l/m 0 min 0 min 3 W/m 14,6 km/h (3 Bft) 97,87 %
11.09.2017 06:20 14,2 C 13,9 C 12,8 C 91 % 0 lf 994,8 hPa 0,0 l/m 0 min 0 min 5 W/m 8,4 km/h (2 Bft) 97,87 %
11.09.2017 06:22 14,2 C 13,9 C 12,8 C 90 % 0 lf 994,8 hPa 0,0 l/m 0 min 0 min 0 W/m 20,9 km/h (4 Bft) 97,83 %
11.09.2017 06:24 14,2 C 13,9 C 12,8 C 90 % 0 lf 994,8 hPa 0,0 l/m 0 min 0 min 3 W/m 14,6 km/h (3 Bft) 95,74 %
11.09.2017 06:26 14,2 C 13,9 C 12,8 C 90 % 0 lf 994,8 hPa 0,0 l/m 0 min 0 min 5 W/m 14,6 km/h (3 Bft) 95,74 %
11.09.2017 06:28 14,2 C 13,9 C 12,8 C 90 % 0 lf 994,8 hPa 0,0 l/m 0 min 0 min 3 W/m 16,7 km/h (3 Bft) 97,87 %
11.09.2017 06:30 14,2 C 13,9 C 12,8 C 90 % 0 lf 994,8 hPa 0,0 l/m 0 min 0 min 5 W/m 18,8 km/h (3 Bft) 95,74 %
11.09.2017 06:32 14,2 C 13,9 C 12,8 C 90 % 0 lf 994,7 hPa 0,0 l/m 0 min 0 min 0 W/m 18,8 km/h (3 Bft) 97,87 %
11.09.2017 06:34 14,2 C 13,9 C 12,2 C 90 % 0 lf 994,6 hPa 0,0 l/m 0 min 0 min 3 W/m 12,6 km/h (3 Bft) 97,83 %
11.09.2017 06:36 14,2 C 13,9 C 12,8 C 90 % 0 lf 994,6 hPa 0,0 l/m 0 min 0 min 2 W/m 14,6 km/h (3 Bft) 100,00 %
11.09.2017 06:38 14,2 C 13,9 C 12,2 C 90 % 0 lf 994,6 hPa 0,0 l/m 0 min 0 min 0 W/m 18,8 km/h (3 Bft) 97,87 %
11.09.2017 06:40 14,2 C 13,9 C 12,8 C 90 % 0 lf 994,6 hPa 0,0 l/m 0 min 0 min 0 W/m 20,9 km/h (4 Bft) 100,00 %
11.09.2017 06:42 14,2 C 13,9 C 12,8 C 90 % 0 lf 994,6 hPa 0,0 l/m 0 min 0 min 0 W/m 16,7 km/h (3 Bft) 100,00 %
11.09.2017 06:44 14,2 C 13,9 C 12,8 C 90 % 0 lf 994,7 hPa 0,0 l/m 0 min 0 min 0 W/m 14,6 km/h (3 Bft) 97,87 %
11.09.2017 06:46 14,2 C 13,9 C 12,8 C 90 % 0 lf 994,8 hPa 0,0 l/m 0 min 0 min 5 W/m 18,8 km/h (3 Bft) 97,83 %
11.09.2017 06:48 14,2 C 13,9 C 12,8 C 90 % 0 lf 994,7 hPa 0,0 l/m 0 min 0 min 5 W/m 29,3 km/h (5 Bft) 97,87 %
11.09.2017 06:50 14,2 C 13,9 C 12,8 C 90 % 0 lf 994,7 hPa 0,0 l/m 0 min 0 min 7 W/m 23,0 km/h (4 Bft) 97,87 %
11.09.2017 06:52 14,2 C 13,9 C 12,8 C 90 % 0 lf 994,7 hPa 0,0 l/m 0 min 0 min 7 W/m 16,7 km/h (3 Bft) 97,87 %
11.09.2017 06:54 14,2 C 13,9 C 12,8 C 90 % 0 lf 994,7 hPa 0,0 l/m 0 min 0 min 7 W/m 14,6 km/h (3 Bft) 95,74 %
11.09.2017 06:56 14,2 C 13,9 C 12,8 C 90 % 0 lf 994,6 hPa 0,0 l/m 0 min 0 min 7 W/m 18,8 km/h (3 Bft) 95,74 %
11.09.2017 06:58 14,2 C 13,9 C 12,8 C 90 % 0 lf 994,6 hPa 0,0 l/m 0 min 0 min 10 W/m 14,6 km/h (3 Bft) 97,83 %
11.09.2017 07:00 14,2 C 13,9 C 12,8 C 90 % 0 lf 994,6 hPa 0,0 l/m 0 min 0 min 9 W/m 23,0 km/h (4 Bft) 97,87 %
11.09.2017 07:02 14,2 C 13,9 C 12,8 C 90 % 0 lf 994,7 hPa 0,0 l/m 0 min 0 min 7 W/m 12,6 km/h (3 Bft) 97,87 %
11.09.2017 07:04 14,2 C 13,9 C 12,8 C 90 % 0 lf 994,8 hPa 0,0 l/m 0 min 0 min 7 W/m 25,1 km/h (4 Bft) 95,74 %
11.09.2017 07:06 14,2 C 13,9 C 12,8 C 90 % 0 lf 994,8 hPa 0,0 l/m 0 min 0 min 6 W/m 20,9 km/h (4 Bft) 95,74 %
11.09.2017 07:08 14,2 C 13,9 C 12,8 C 90 % 2 lf 994,8 hPa 0,0 l/m 0 min 0 min 5 W/m 18,8 km/h (3 Bft) 97,87 %
11.09.2017 07:10 14,2 C 13,9 C 12,8 C 90 % 4 lf 994,9 hPa 0,0 l/m 0 min 2 min 5 W/m 18,8 km/h (3 Bft) 95,65 %
11.09.2017 07:12 14,2 C 13,9 C 12,8 C 90 % 3 lf 994,8 hPa 0,0 l/m 0 min 0 min 6 W/m 18,8 km/h (3 Bft) 93,62 %
11.09.2017 07:14 14,2 C 13,9 C 12,8 C 90 % 3 lf 994,7 hPa 0,0 l/m 0 min 0 min 7 W/m 14,6 km/h (3 Bft) 95,74 %
11.09.2017 07:16 14,2 C 13,9 C 12,8 C 90 % 1 lf 994,7 hPa 0,0 l/m 0 min 0 min 7 W/m 25,1 km/h (4 Bft) 94,74 %
11.09.2017 07:18 14,2 C 13,9 C 12,8 C 90 % 0 lf 994,9 hPa 0,0 l/m 0 min 0 min 7 W/m 18,8 km/h (3 Bft) 93,48 %
11.09.2017 07:20 14,2 C 13,9 C 12,8 C 90 % 0 lf 994,9 hPa 0,0 l/m 0 min 0 min 9 W/m 23,0 km/h (4 Bft) 95,74 %
11.09.2017 07:22 14,2 C 13,9 C 12,8 C 90 % 0 lf 994,9 hPa 0,0 l/m 0 min 0 min 9 W/m 18,8 km/h (3 Bft) 95,74 %
11.09.2017 07:24 14,2 C 13,9 C 12,2 C 90 % 8 lf 994,8 hPa 0,0 l/m 0 min 2 min 12 W/m 14,6 km/h (3 Bft) 91,49 %
11.09.2017 07:26 14,2 C 13,3 C 12,2 C 90 % 14 lf 994,9 hPa 0,0 l/m 0 min 2 min 13 W/m 29,3 km/h (5 Bft) 91,49 %
11.09.2017 07:28 14,2 C 13,3 C 12,2 C 90 % 14 lf 994,9 hPa 0,0 l/m 0 min 2 min 11 W/m 18,8 km/h (3 Bft) 93,62 %
11.09.2017 07:30 14,2 C 13,3 C 11,7 C 89 % 13 lf 994,9 hPa 0,0 l/m 0 min 2 min 9 W/m 16,7 km/h (3 Bft) 93,48 %
11.09.2017 07:32 14,2 C 12,8 C 11,7 C 89 % 12 lf 995,0 hPa 0,0 l/m 0 min 2 min 9 W/m 23,0 km/h (4 Bft) 93,62 %
11.09.2017 07:34 14,2 C 12,8 C 11,7 C 89 % 11 lf 995,0 hPa 0,0 l/m 0 min 2 min 11 W/m 23,0 km/h (4 Bft) 91,49 %
11.09.2017 07:36 14,2 C 13,3 C 11,7 C 89 % 9 lf 995,0 hPa 0,0 l/m 0 min 2 min 11 W/m 16,7 km/h (3 Bft) 93,62 %
11.09.2017 07:38 14,2 C 13,3 C 11,7 C 89 % 10 lf 994,9 hPa 0,0 l/m 0 min 2 min 13 W/m 12,6 km/h (3 Bft) 93,62 %
11.09.2017 07:40 14,2 C 13,3 C 11,7 C 89 % 11 lf 994,9 hPa 0,0 l/m 0 min 2 min 15 W/m 23,0 km/h (4 Bft) 93,48 %
11.09.2017 07:42 14,1 C 13,3 C 11,7 C 89 % 10 lf 995,0 hPa 0,0 l/m 0 min 2 min 14 W/m 20,9 km/h (4 Bft) 89,58 %
11.09.2017 07:44 14,1 C 13,3 C 11,7 C 89 % 10 lf 994,9 hPa 0,0 l/m 0 min 2 min 15 W/m 10,5 km/h (2 Bft) 93,75 %
11.09.2017 07:46 14,1 C 13,3 C 11,7 C 89 % 8 lf 995,1 hPa 0,0 l/m 0 min 2 min 17 W/m 10,5 km/h (2 Bft) 93,62 %
11.09.2017 07:48 14,0 C 13,3 C 11,7 C 89 % 6 lf 995,0 hPa 0,0 l/m 0 min 0 min 18 W/m 14,6 km/h (3 Bft) 93,62 %
11.09.2017 07:50 14,0 C 13,3 C 11,7 C 89 % 4 lf 995,1 hPa 0,0 l/m 0 min 0 min 18 W/m 14,6 km/h (3 Bft) 93,62 %
11.09.2017 07:52 14,0 C 13,3 C 11,7 C 89 % 3 lf 995,1 hPa 0,0 l/m 0 min 0 min 19 W/m 14,6 km/h (3 Bft) 95,74 %
11.09.2017 07:54 14,0 C 13,3 C 11,7 C 89 % 1 lf 995,1 hPa 0,0 l/m 0 min 0 min 19 W/m 14,6 km/h (3 Bft) 97,87 %
11.09.2017 07:56 13,9 C 13,3 C 11,7 C 89 % 0 lf 995,2 hPa 0,0 l/m 0 min 0 min 21 W/m 10,5 km/h (2 Bft) 97,87 %
11.09.2017 07:58 13,9 C 13,3 C 11,7 C 89 % 0 lf 995,2 hPa 0,0 l/m 0 min 0 min 25 W/m 14,6 km/h (3 Bft) 93,48 %
11.09.2017 08:00 13,9 C 13,3 C 11,7 C 89 % 0 lf 995,3 hPa 0,0 l/m 0 min 0 min 30 W/m 23,0 km/h (4 Bft) 95,45 %
11.09.2017 08:02 13,8 C 13,3 C 11,7 C 89 % 0 lf 995,2 hPa 0,0 l/m 0 min 0 min 32 W/m 20,9 km/h (4 Bft) 98,00 %
11.09.2017 08:04 13,8 C 13,3 C 11,7 C 89 % 0 lf 995,2 hPa 0,0 l/m 0 min 0 min 29 W/m 16,7 km/h (3 Bft) 97,87 %
11.09.2017 08:06 13,8 C 13,3 C 11,7 C 89 % 0 lf 995,1 hPa 0,0 l/m 0 min 0 min 26 W/m 14,6 km/h (3 Bft) 97,87 %
11.09.2017 08:08 13,8 C 13,3 C 11,7 C 89 % 0 lf 995,2 hPa 0,0 l/m 0 min 0 min 26 W/m 18,8 km/h (3 Bft) 93,62 %
11.09.2017 08:10 13,7 C 13,3 C 11,7 C 89 % 0 lf 995,2 hPa 0,0 l/m 0 min 0 min 26 W/m 10,5 km/h (2 Bft) 97,56 %
11.09.2017 08:12 13,7 C 13,3 C 11,7 C 89 % 0 lf 995,1 hPa 0,0 l/m 0 min 0 min 29 W/m 18,8 km/h (3 Bft) 97,92 %
11.09.2017 08:14 13,7 C 13,3 C 11,7 C 89 % 0 lf 995,1 hPa 0,0 l/m 0 min 0 min 34 W/m 14,6 km/h (3 Bft) 91,67 %
11.09.2017 08:16 13,7 C 13,3 C 11,7 C 89 % 0 lf 995,3 hPa 0,0 l/m 0 min 0 min 39 W/m 23,0 km/h (4 Bft) 100,00 %
11.09.2017 08:18 13,6 C 13,3 C 11,7 C 89 % 0 lf 995,2 hPa 0,0 l/m 0 min 0 min 37 W/m 16,7 km/h (3 Bft) 100,00 %
11.09.2017 08:20 13,6 C 13,3 C 11,7 C 89 % 0 lf 995,3 hPa 0,0 l/m 0 min 0 min 36 W/m 16,7 km/h (3 Bft) 97,92 %
11.09.2017 08:22 13,6 C 13,3 C 11,7 C 89 % 0 lf 995,4 hPa 0,0 l/m 0 min 0 min 41 W/m 14,6 km/h (3 Bft) 97,92 %
11.09.2017 08:24 13,6 C 13,3 C 11,7 C 89 % 0 lf 995,3 hPa 0,0 l/m 0 min 0 min 55 W/m 25,1 km/h (4 Bft) 97,92 %
11.09.2017 08:26 13,5 C 13,3 C 11,7 C 89 % 0 lf 995,3 hPa 0,0 l/m 0 min 0 min 92 W/m 20,9 km/h (4 Bft) 100,00 %
11.09.2017 08:28 13,5 C 13,9 C 11,7 C 89 % 0 lf 995,4 hPa 0,0 l/m 2 min 0 min 168 W/m 33,5 km/h (5 Bft) 97,87 %
11.09.2017 08:30 13,5 C 14,4 C 11,7 C 89 % 0 lf 995,3 hPa 0,0 l/m 2 min 0 min 167 W/m 23,0 km/h (4 Bft) 97,87 %
11.09.2017 08:32 13,5 C 15,0 C 11,7 C 89 % 0 lf 995,3 hPa 0,0 l/m 2 min 0 min 150 W/m 23,0 km/h (4 Bft) 100,00 %
11.09.2017 08:34 13,6 C 16,1 C 12,2 C 89 % 0 lf 995,3 hPa 0,0 l/m 2 min 0 min 158 W/m 20,9 km/h (4 Bft) 100,00 %
11.09.2017 08:36 13,6 C 17,2 C 12,2 C 89 % 0 lf 995,3 hPa 0,0 l/m 2 min 0 min 185 W/m 18,8 km/h (3 Bft) 93,62 %
11.09.2017 08:38 13,6 C 17,8 C 12,2 C 89 % 0 lf 995,3 hPa 0,0 l/m 2 min 0 min 193 W/m 18,8 km/h (3 Bft) 97,87 %
11.09.2017 08:40 13,7 C 18,3 C 12,2 C 89 % 0 lf 995,4 hPa 0,0 l/m 2 min 0 min 198 W/m 20,9 km/h (4 Bft) 97,56 %
11.09.2017 08:42 13,7 C 18,9 C 12,2 C 88 % 0 lf 995,4 hPa 0,0 l/m 2 min 0 min 201 W/m 18,8 km/h (3 Bft) 91,49 %
11.09.2017 08:44 13,8 C 17,2 C 12,2 C 88 % 0 lf 995,4 hPa 0,0 l/m 2 min 0 min 153 W/m 25,1 km/h (4 Bft) 97,92 %
11.09.2017 08:46 13,8 C 18,3 C 12,2 C 88 % 0 lf 995,4 hPa 0,0 l/m 2 min 0 min 209 W/m 25,1 km/h (4 Bft) 97,92 %
11.09.2017 08:48 13,9 C 18,3 C 12,2 C 88 % 0 lf 995,4 hPa 0,0 l/m 2 min 0 min 222 W/m 31,4 km/h (5 Bft) 97,92 %
11.09.2017 08:50 13,9 C 18,9 C 12,8 C 88 % 0 lf 995,4 hPa 0,0 l/m 2 min 0 min 230 W/m 27,2 km/h (4 Bft) 95,74 %
11.09.2017 08:52 14,1 C 18,9 C 12,8 C 87 % 0 lf 995,4 hPa 0,0 l/m 2 min 0 min 236 W/m 39,7 km/h (6 Bft) 97,92 %
11.09.2017 08:54 14,2 C 19,4 C 12,8 C 87 % 0 lf 995,4 hPa 0,0 l/m 2 min 0 min 244 W/m 29,3 km/h (5 Bft) 97,92 %
11.09.2017 08:56 14,2 C 20,0 C 12,8 C 87 % 0 lf 995,4 hPa 0,0 l/m 2 min 0 min 252 W/m 20,9 km/h (4 Bft) 95,74 %
11.09.2017 08:58 14,2 C 20,6 C 12,8 C 87 % 0 lf 995,5 hPa 0,0 l/m 2 min 0 min 269 W/m 33,5 km/h (5 Bft) 95,65 %
11.09.2017 09:00 14,2 C 19,4 C 13,3 C 87 % 0 lf 995,4 hPa 0,0 l/m 0 min 0 min 134 W/m 31,4 km/h (5 Bft) 97,87 %
11.09.2017 09:02 14,3 C 17,8 C 13,3 C 86 % 0 lf 995,5 hPa 0,0 l/m 0 min 0 min 113 W/m 20,9 km/h (4 Bft) 97,67 %
11.09.2017 09:04 14,3 C 17,2 C 12,8 C 86 % 0 lf 995,4 hPa 0,0 l/m 0 min 0 min 123 W/m 37,7 km/h (5 Bft) 97,78 %
11.09.2017 09:06 14,4 C 17,2 C 12,8 C 86 % 0 lf 995,4 hPa 0,0 l/m 0 min 0 min 104 W/m 35,6 km/h (5 Bft) 95,83 %
11.09.2017 09:08 14,4 C 17,8 C 12,8 C 85 % 0 lf 995,4 hPa 0,0 l/m 2 min 0 min 289 W/m 33,5 km/h (5 Bft) 97,92 %
11.09.2017 09:10 14,4 C 19,4 C 13,3 C 86 % 0 lf 995,4 hPa 0,0 l/m 2 min 0 min 292 W/m 20,9 km/h (4 Bft) 95,74 %
11.09.2017 09:12 14,5 C 20,0 C 13,3 C 86 % 0 lf 995,5 hPa 0,0 l/m 2 min 0 min 272 W/m 29,3 km/h (5 Bft) 95,83 %
11.09.2017 09:14 14,6 C 20,0 C 13,3 C 86 % 0 lf 995,4 hPa 0,0 l/m 2 min 0 min 293 W/m 31,4 km/h (5 Bft) 97,87 %
11.09.2017 09:16 14,6 C 20,0 C 13,3 C 85 % 0 lf 995,5 hPa 0,0 l/m 2 min 0 min 302 W/m 35,6 km/h (5 Bft) 95,83 %
11.09.2017 09:18 14,7 C 20,0 C 13,3 C 84 % 0 lf 995,6 hPa 0,0 l/m 2 min 0 min 311 W/m 29,3 km/h (5 Bft) 97,92 %
11.09.2017 09:20 14,7 C 20,6 C 13,9 C 84 % 0 lf 995,5 hPa 0,0 l/m 2 min 0 min 325 W/m 23,0 km/h (4 Bft) 97,83 %
11.09.2017 09:22 14,8 C 20,6 C 13,9 C 84 % 0 lf 995,4 hPa 0,0 l/m 2 min 0 min 316 W/m 20,9 km/h (4 Bft) 93,62 %
11.09.2017 09:24 14,9 C 19,4 C 13,9 C 84 % 0 lf 995,5 hPa 0,0 l/m 2 min 0 min 330 W/m 31,4 km/h (5 Bft) 95,74 %
11.09.2017 09:26 14,9 C 20,6 C 13,9 C 84 % 0 lf 995,5 hPa 0,0 l/m 2 min 0 min 303 W/m 27,2 km/h (4 Bft) 93,62 %
11.09.2017 09:28 15,0 C 20,6 C 13,9 C 83 % 0 lf 995,6 hPa 0,0 l/m 2 min 0 min 337 W/m 37,7 km/h (5 Bft) 100,00 %
11.09.2017 09:30 15,1 C 21,1 C 13,9 C 83 % 0 lf 995,5 hPa 0,0 l/m 2 min 0 min 333 W/m 37,7 km/h (5 Bft) 97,87 %
11.09.2017 09:32 15,1 C 21,7 C 13,9 C 83 % 0 lf 995,6 hPa 0,0 l/m 2 min 0 min 360 W/m 46,0 km/h (6 Bft) 100,00 %
11.09.2017 09:34 15,2 C 21,1 C 14,4 C 82 % 0 lf 995,7 hPa 0,0 l/m 2 min 0 min 392 W/m 31,4 km/h (5 Bft) 92,86 %
11.09.2017 09:36 15,2 C 20,0 C 14,4 C 82 % 0 lf 995,7 hPa 0,0 l/m 2 min 0 min 269 W/m 33,5 km/h (5 Bft) 97,92 %
11.09.2017 09:38 15,2 C 18,3 C 14,4 C 81 % 0 lf 995,8 hPa 0,0 l/m 0 min 0 min 180 W/m 41,8 km/h (6 Bft) 95,74 %
11.09.2017 09:40 15,2 C 17,2 C 13,9 C 81 % 0 lf 995,7 hPa 0,0 l/m 0 min 0 min 129 W/m 35,6 km/h (5 Bft) 95,83 %
11.09.2017 09:42 15,2 C 18,9 C 14,4 C 80 % 0 lf 995,7 hPa 0,0 l/m 0 min 0 min 137 W/m 31,4 km/h (5 Bft) 97,92 %
11.09.2017 09:44 15,3 C 18,3 C 14,4 C 80 % 0 lf 995,8 hPa 0,0 l/m 2 min 0 min 332 W/m 33,5 km/h (5 Bft) 97,92 %
11.09.2017 09:46 15,3 C 17,8 C 15,0 C 80 % 0 lf 995,9 hPa 0,0 l/m 2 min 0 min 332 W/m 37,7 km/h (5 Bft) 97,87 %
11.09.2017 09:48 15,3 C 17,8 C 15,0 C 80 % 0 lf 995,9 hPa 0,0 l/m 2 min 0 min 499 W/m 39,7 km/h (6 Bft) 95,74 %
11.09.2017 09:50 15,4 C 17,2 C 15,0 C 80 % 0 lf 995,8 hPa 0,0 l/m 2 min 0 min 278 W/m 35,6 km/h (5 Bft) 93,62 %
11.09.2017 09:52 15,3 C 16,1 C 14,4 C 79 % 0 lf 995,9 hPa 0,0 l/m 0 min 0 min 155 W/m 33,5 km/h (5 Bft) 97,87 %
11.09.2017 09:54 15,3 C 16,7 C 15,0 C 79 % 0 lf 995,8 hPa 0,0 l/m 0 min 0 min 142 W/m 29,3 km/h (5 Bft) 100,00 %
11.09.2017 09:56 15,3 C 16,7 C 15,0 C 80 % 0 lf 995,8 hPa 0,0 l/m 0 min 0 min 167 W/m 41,8 km/h (6 Bft) 97,83 %
11.09.2017 09:58 15,3 C 17,2 C 15,0 C 79 % 0 lf 995,9 hPa 0,0 l/m 0 min 0 min 175 W/m 39,7 km/h (6 Bft) 97,62 %
11.09.2017 10:00 15,3 C 18,9 C 15,6 C 79 % 0 lf 995,9 hPa 0,0 l/m 2 min 0 min 520 W/m 37,7 km/h (5 Bft) 100,00 %
11.09.2017 10:02 15,3 C 18,9 C 15,6 C 79 % 0 lf 996,1 hPa 0,0 l/m 2 min 0 min 491 W/m 46,0 km/h (6 Bft) 100,00 %
11.09.2017 10:04 15,4 C 19,4 C 16,1 C 79 % 0 lf 996,0 hPa 0,0 l/m 2 min 0 min 463 W/m 43,9 km/h (6 Bft) 100,00 %
11.09.2017 10:06 15,4 C 19,4 C 15,6 C 78 % 0 lf 995,9 hPa 0,0 l/m 2 min 0 min 492 W/m 27,2 km/h (4 Bft) 100,00 %
11.09.2017 10:08 15,5 C 18,9 C 15,6 C 79 % 0 lf 995,9 hPa 0,0 l/m 2 min 0 min 346 W/m 31,4 km/h (5 Bft) 100,00 %
11.09.2017 10:10 15,5 C 17,2 C 15,0 C 78 % 0 lf 995,9 hPa 0,0 l/m 0 min 0 min 173 W/m 35,6 km/h (5 Bft) 97,87 %
11.09.2017 10:12 15,5 C 19,4 C 15,6 C 78 % 0 lf 995,9 hPa 0,0 l/m 2 min 0 min 251 W/m 31,4 km/h (5 Bft) 97,62 %
11.09.2017 10:14 15,5 C 19,4 C 16,1 C 78 % 0 lf 996,0 hPa 0,0 l/m 2 min 0 min 340 W/m 33,5 km/h (5 Bft) 97,87 %
11.09.2017 10:16 15,6 C 19,4 C 16,7 C 78 % 0 lf 995,9 hPa 0,0 l/m 2 min 0 min 378 W/m 37,7 km/h (5 Bft) 97,87 %
11.09.2017 10:18 15,6 C 20,0 C 16,7 C 77 % 0 lf 996,0 hPa 0,0 l/m 2 min 0 min 482 W/m 41,8 km/h (6 Bft) 93,75 %
11.09.2017 10:20 15,6 C 19,4 C 16,7 C 77 % 0 lf 996,0 hPa 0,0 l/m 2 min 0 min 391 W/m 35,6 km/h (5 Bft) 93,62 %
11.09.2017 10:22 15,7 C 20,0 C 17,2 C 78 % 0 lf 996,0 hPa 0,0 l/m 2 min 0 min 283 W/m 37,7 km/h (5 Bft) 91,49 %
11.09.2017 10:24 15,7 C 19,4 C 16,7 C 77 % 0 lf 996,0 hPa 0,0 l/m 2 min 0 min 268 W/m 35,6 km/h (5 Bft) 93,48 %
11.09.2017 10:26 15,7 C 20,0 C 17,8 C 77 % 0 lf 996,0 hPa 0,0 l/m 0 min 0 min 148 W/m 27,2 km/h (4 Bft) 93,62 %
11.09.2017 10:28 15,8 C 22,8 C 19,4 C 78 % 0 lf 996,0 hPa 0,0 l/m 2 min 0 min 562 W/m 20,9 km/h (4 Bft) 95,83 %
11.09.2017 10:30 15,9 C 22,2 C 19,4 C 78 % 0 lf 996,0 hPa 0,0 l/m 2 min 0 min 626 W/m 35,6 km/h (5 Bft) 93,75 %
11.09.2017 10:32 16,0 C 19,4 C 17,8 C 77 % 0 lf 996,0 hPa 0,0 l/m 2 min 0 min 470 W/m 27,2 km/h (4 Bft) 95,74 %
11.09.2017 10:34 16,1 C 19,4 C 17,2 C 76 % 0 lf 995,9 hPa 0,0 l/m 2 min 0 min 317 W/m 41,8 km/h (6 Bft) 93,75 %
11.09.2017 10:36 16,1 C 21,1 C 17,8 C 76 % 0 lf 995,9 hPa 0,0 l/m 2 min 0 min 530 W/m 41,8 km/h (6 Bft) 95,74 %
11.09.2017 10:38 16,1 C 21,1 C 17,8 C 76 % 0 lf 995,9 hPa 0,0 l/m 2 min 0 min 543 W/m 33,5 km/h (5 Bft) 95,74 %
11.09.2017 10:40 16,2 C 21,7 C 17,8 C 76 % 0 lf 996,0 hPa 0,0 l/m 2 min 0 min 320 W/m 43,9 km/h (6 Bft) 95,74 %
11.09.2017 10:42 16,2 C 21,7 C 17,8 C 76 % 0 lf 996,0 hPa 0,0 l/m 2 min 0 min 373 W/m 31,4 km/h (5 Bft) 93,62 %
11.09.2017 10:44 16,3 C 22,2 C 18,3 C 76 % 0 lf 996,0 hPa 0,0 l/m 2 min 0 min 618 W/m 35,6 km/h (5 Bft) 95,65 %
11.09.2017 10:46 16,4 C 21,1 C 17,8 C 76 % 0 lf 996,0 hPa 0,0 l/m 2 min 0 min 606 W/m 33,5 km/h (5 Bft) 95,74 %
11.09.2017 10:48 16,4 C 19,4 C 17,2 C 76 % 0 lf 996,0 hPa 0,0 l/m 2 min 0 min 279 W/m 37,7 km/h (5 Bft) 95,74 %
11.09.2017 10:50 16,4 C 20,0 C 17,2 C 75 % 0 lf 996,0 hPa 0,0 l/m 2 min 0 min 346 W/m 31,4 km/h (5 Bft) 95,74 %
11.09.2017 10:52 16,4 C 19,4 C 17,2 C 75 % 0 lf 996,0 hPa 0,0 l/m 2 min 0 min 468 W/m 39,7 km/h (6 Bft) 95,74 %
11.09.2017 10:54 16,4 C 18,3 C 16,7 C 75 % 0 lf 996,0 hPa 0,0 l/m 0 min 0 min 203 W/m 31,4 km/h (5 Bft) 97,56 %
11.09.2017 10:56 16,3 C 17,8 C 16,7 C 75 % 0 lf 996,0 hPa 0,0 l/m 0 min 0 min 183 W/m 23,0 km/h (4 Bft) 97,92 %
11.09.2017 10:58 16,3 C 17,2 C 16,1 C 75 % 0 lf 996,1 hPa 0,0 l/m 0 min 2 min 174 W/m 27,2 km/h (4 Bft) 97,92 %
11.09.2017 11:00 16,3 C 16,7 C 15,6 C 75 % 0 lf 996,1 hPa 0,0 l/m 0 min 0 min 174 W/m 33,5 km/h (5 Bft) 95,74 %
11.09.2017 11:02 16,2 C 16,7 C 16,1 C 75 % 0 lf 996,2 hPa 0,0 l/m 0 min 0 min 221 W/m 41,8 km/h (6 Bft) 98,00 %
11.09.2017 11:04 16,2 C 17,2 C 16,1 C 75 % 0 lf 996,1 hPa 0,0 l/m 2 min 0 min 279 W/m 41,8 km/h (6 Bft) 97,87 %
11.09.2017 11:06 16,1 C 18,9 C 16,7 C 76 % 0 lf 996,2 hPa 0,0 l/m 0 min 0 min 272 W/m 35,6 km/h (5 Bft) 97,83 %
11.09.2017 11:08 16,1 C 20,0 C 18,3 C 76 % 0 lf 996,1 hPa 0,0 l/m 0 min 0 min 264 W/m 20,9 km/h (4 Bft) 93,62 %
11.09.2017 11:10 16,2 C 19,4 C 18,3 C 76 % 0 lf 996,1 hPa 0,0 l/m 0 min 0 min 260 W/m 35,6 km/h (5 Bft) 100,00 %
11.09.2017 11:12 16,2 C 18,9 C 17,8 C 77 % 0 lf 996,2 hPa 0,0 l/m 0 min 0 min 237 W/m 25,1 km/h (4 Bft) 100,00 %
11.09.2017 11:14 16,2 C 18,3 C 17,2 C 76 % 0 lf 996,1 hPa 0,0 l/m 2 min 0 min 299 W/m 33,5 km/h (5 Bft) 100,00 %
11.09.2017 11:16 16,2 C 17,8 C 16,7 C 76 % 0 lf 996,1 hPa 0,0 l/m 0 min 0 min 228 W/m 33,5 km/h (5 Bft) 100,00 %
11.09.2017 11:18 16,1 C 17,2 C 16,1 C 76 % 0 lf 996,1 hPa 0,0 l/m 0 min 0 min 187 W/m 33,5 km/h (5 Bft) 100,00 %
11.09.2017 11:20 16,1 C 16,7 C 16,1 C 76 % 0 lf 996,2 hPa 0,0 l/m 0 min 2 min 158 W/m 33,5 km/h (5 Bft) 100,00 %
11.09.2017 11:22 16,1 C 16,1 C 15,0 C 76 % 3 lf 996,2 hPa 0,0 l/m 0 min 2 min 136 W/m 35,6 km/h (5 Bft) 100,00 %
11.09.2017 11:24 15,9 C 15,0 C 14,4 C 77 % 1 lf 996,3 hPa 0,0 l/m 0 min 2 min 126 W/m 37,7 km/h (5 Bft) 97,92 %
11.09.2017 11:26 15,9 C 15,0 C 13,9 C 77 % 13 lf 996,4 hPa 0,0 l/m 0 min 2 min 105 W/m 31,4 km/h (5 Bft) 100,00 %
11.09.2017 11:28 15,7 C 13,9 C 12,8 C 78 % 15 lf 996,4 hPa 0,0 l/m 0 min 2 min 100 W/m 41,8 km/h (6 Bft) 100,00 %
11.09.2017 11:30 15,6 C 13,3 C 12,2 C 79 % 15 lf 996,4 hPa 0,0 l/m 0 min 2 min 99 W/m 27,2 km/h (4 Bft) 100,00 %
11.09.2017 11:32 15,5 C 13,3 C 12,2 C 80 % 15 lf 996,4 hPa 0,0 l/m 0 min 2 min 76 W/m 23,0 km/h (4 Bft) 97,92 %
11.09.2017 11:34 15,3 C 13,9 C 12,2 C 81 % 15 lf 996,4 hPa 0,0 l/m 0 min 2 min 76 W/m 29,3 km/h (5 Bft) 95,74 %
11.09.2017 11:36 15,2 C 15,6 C 13,3 C 82 % 15 lf 996,4 hPa 0,0 l/m 0 min 0 min 90 W/m 23,0 km/h (4 Bft) 100,00 %
11.09.2017 11:38 15,2 C 18,3 C 15,0 C 83 % 13 lf 996,4 hPa 0,0 l/m 2 min 0 min 433 W/m 14,6 km/h (3 Bft) 95,74 %
11.09.2017 11:40 15,2 C 20,0 C 16,1 C 83 % 9 lf 996,3 hPa 0,0 l/m 2 min 2 min 573 W/m 25,1 km/h (4 Bft) 95,65 %
11.09.2017 11:42 15,2 C 20,6 C 16,7 C 84 % 2 lf 996,3 hPa 0,0 l/m 2 min 2 min 676 W/m 20,9 km/h (4 Bft) 97,87 %
11.09.2017 11:44 15,3 C 19,4 C 16,1 C 84 % 0 lf 996,3 hPa 0,0 l/m 2 min 0 min 375 W/m 29,3 km/h (5 Bft) 91,49 %
11.09.2017 11:46 15,3 C 18,9 C 16,1 C 84 % 0 lf 996,3 hPa 0,0 l/m 0 min 0 min 161 W/m 16,7 km/h (3 Bft) 97,87 %
11.09.2017 11:48 15,3 C 16,7 C 14,4 C 83 % 13 lf 996,3 hPa 0,0 l/m 0 min 2 min 137 W/m 33,5 km/h (5 Bft) 97,87 %
11.09.2017 11:50 15,3 C 16,1 C 13,9 C 83 % 12 lf 996,3 hPa 0,0 l/m 0 min 2 min 107 W/m 23,0 km/h (4 Bft) 95,12 %
11.09.2017 11:52 15,3 C 18,3 C 15,0 C 83 % 6 lf 996,2 hPa 0,0 l/m 0 min 2 min 203 W/m 25,1 km/h (4 Bft) 93,75 %
11.09.2017 11:54 15,3 C 21,1 C 17,2 C 84 % 1 lf 996,2 hPa 0,0 l/m 2 min 0 min 633 W/m 23,0 km/h (4 Bft) 95,83 %
11.09.2017 11:56 15,4 C 21,7 C 18,3 C 84 % 0 lf 996,3 hPa 0,0 l/m 2 min 0 min 635 W/m 23,0 km/h (4 Bft) 95,74 %
11.09.2017 11:58 15,5 C 21,7 C 19,4 C 84 % 0 lf 996,3 hPa 0,0 l/m 2 min 0 min 630 W/m 33,5 km/h (5 Bft) 95,74 %
11.09.2017 12:00 15,7 C 22,8 C 19,4 C 82 % 0 lf 996,3 hPa 0,0 l/m 2 min 0 min 639 W/m 27,2 km/h (4 Bft) 96,00 %
11.09.2017 12:02 15,8 C 22,2 C 20,6 C 82 % 0 lf 996,3 hPa 0,0 l/m 2 min 0 min 648 W/m 29,3 km/h (5 Bft) 95,74 %
11.09.2017 12:04 15,9 C 21,1 C 20,6 C 81 % 0 lf 996,2 hPa 0,0 l/m 2 min 0 min 667 W/m 29,3 km/h (5 Bft) 97,56 %
11.09.2017 12:06 16,0 C 22,2 C 21,1 C 80 % 0 lf 996,3 hPa 0,0 l/m 2 min 0 min 722 W/m 31,4 km/h (5 Bft) 93,75 %
11.09.2017 12:10 16,3 C 20,6 C 20,0 C 79 % 0 lf 996,2 hPa 0,0 l/m 4 min 0 min 537 W/m 29,3 km/h (5 Bft) 95,74 %
11.09.2017 12:12 16,4 C 21,7 C 21,1 C 80 % 0 lf 996,1 hPa 0,0 l/m 2 min 0 min 415 W/m 23,0 km/h (4 Bft) 93,75 %
11.09.2017 12:14 16,5 C 20,0 C 20,0 C 79 % 0 lf 996,2 hPa 0,0 l/m 2 min 0 min 388 W/m 25,1 km/h (4 Bft) 97,92 %
11.09.2017 12:16 16,6 C 21,1 C 20,0 C 78 % 0 lf 996,2 hPa 0,0 l/m 2 min 0 min 338 W/m 27,2 km/h (4 Bft) 95,83 %
11.09.2017 12:18 16,7 C 20,0 C 19,4 C 76 % 0 lf 996,1 hPa 0,0 l/m 2 min 0 min 391 W/m 25,1 km/h (4 Bft) 97,92 %
11.09.2017 12:20 16,7 C 18,9 C 18,3 C 76 % 0 lf 996,3 hPa 0,0 l/m 2 min 0 min 329 W/m 27,2 km/h (4 Bft) 97,87 %
11.09.2017 12:22 16,7 C 18,3 C 17,8 C 76 % 0 lf 996,3 hPa 0,0 l/m 0 min 0 min 171 W/m 37,7 km/h (5 Bft) 95,74 %
11.09.2017 12:24 16,7 C 18,9 C 16,7 C 75 % 14 lf 996,3 hPa 0,0 l/m 0 min 2 min 235 W/m 31,4 km/h (5 Bft) 95,74 %
11.09.2017 12:26 16,7 C 21,1 C 18,9 C 77 % 0 lf 996,3 hPa 0,0 l/m 0 min 2 min 302 W/m 29,3 km/h (5 Bft) 97,83 %
11.09.2017 12:28 16,8 C 21,7 C 19,4 C 76 % 0 lf 996,3 hPa 0,0 l/m 0 min 0 min 302 W/m 31,4 km/h (5 Bft) 97,87 %
11.09.2017 12:30 16,9 C 23,3 C 21,1 C 76 % 0 lf 996,2 hPa 0,0 l/m 2 min 0 min 776 W/m 27,2 km/h (4 Bft) 95,74 %
11.09.2017 12:32 17,0 C 21,1 C 19,4 C 76 % 0 lf 996,2 hPa 0,0 l/m 2 min 0 min 502 W/m 27,2 km/h (4 Bft) 97,62 %
11.09.2017 12:34 17,0 C 19,4 C 18,3 C 75 % 0 lf 996,4 hPa 0,0 l/m 0 min 0 min 205 W/m 31,4 km/h (5 Bft) 95,74 %
11.09.2017 12:36 16,9 C 18,3 C 17,8 C 73 % 0 lf 996,3 hPa 0,0 l/m 0 min 2 min 233 W/m 37,7 km/h (5 Bft) 95,83 %
11.09.2017 12:38 16,8 C 17,8 C 17,2 C 73 % 0 lf 996,3 hPa 0,0 l/m 0 min 0 min 256 W/m 35,6 km/h (5 Bft) 97,92 %
11.09.2017 12:40 16,8 C 19,4 C 18,3 C 73 % 0 lf 996,3 hPa 0,0 l/m 0 min 0 min 297 W/m 25,1 km/h (4 Bft) 95,83 %
11.09.2017 12:42 16,9 C 22,2 C 20,0 C 74 % 0 lf 996,3 hPa 0,0 l/m 2 min 0 min 723 W/m 23,0 km/h (4 Bft) 97,92 %
11.09.2017 12:44 16,9 C 23,9 C 21,1 C 74 % 0 lf 996,1 hPa 0,0 l/m 2 min 0 min 737 W/m 31,4 km/h (5 Bft) 97,87 %
11.09.2017 12:46 17,1 C 24,4 C 21,1 C 73 % 0 lf 996,1 hPa 0,0 l/m 2 min 0 min 772 W/m 29,3 km/h (5 Bft) 97,87 %
11.09.2017 12:48 17,2 C 24,4 C 21,7 C 73 % 0 lf 996,1 hPa 0,0 l/m 2 min 0 min 408 W/m 29,3 km/h (5 Bft) 97,87 %
11.09.2017 12:50 17,4 C 25,6 C 21,7 C 73 % 0 lf 996,0 hPa 0,0 l/m 2 min 0 min 757 W/m 29,3 km/h (5 Bft) 97,83 %
11.09.2017 12:52 17,5 C 25,6 C 20,6 C 72 % 0 lf 996,1 hPa 0,0 l/m 2 min 0 min 730 W/m 33,5 km/h (5 Bft) 95,74 %
11.09.2017 12:54 17,7 C 27,2 C 21,1 C 73 % 0 lf 996,1 hPa 0,0 l/m 2 min 0 min 765 W/m 20,9 km/h (4 Bft) 97,87 %
11.09.2017 12:56 17,8 C 26,7 C 20,6 C 72 % 0 lf 996,0 hPa 0,0 l/m 2 min 0 min 797 W/m 37,7 km/h (5 Bft) 97,87 %
11.09.2017 12:58 17,9 C 25,6 C 20,0 C 70 % 0 lf 996,1 hPa 0,0 l/m 2 min 0 min 790 W/m 39,7 km/h (6 Bft) 92,68 %
11.09.2017 13:00 18,1 C 25,0 C 19,4 C 70 % 0 lf 996,2 hPa 0,0 l/m 2 min 0 min 812 W/m 33,5 km/h (5 Bft) 98,00 %
11.09.2017 13:02 18,1 C 22,2 C 18,9 C 68 % 0 lf 996,1 hPa 0,0 l/m 2 min 0 min 493 W/m 37,7 km/h (5 Bft) 95,74 %
11.09.2017 13:04 18,1 C 20,6 C 18,3 C 68 % 0 lf 996,1 hPa 0,0 l/m 0 min 0 min 259 W/m 23,0 km/h (4 Bft) 97,96 %
11.09.2017 13:06 18,0 C 20,0 C 18,3 C 67 % 0 lf 996,1 hPa 0,0 l/m 0 min 0 min 275 W/m 29,3 km/h (5 Bft) 97,87 %
11.09.2017 13:08 17,9 C 20,0 C 17,8 C 67 % 0 lf 996,0 hPa 0,0 l/m 0 min 0 min 272 W/m 48,1 km/h (6 Bft) 97,87 %
11.09.2017 13:10 17,8 C 21,1 C 17,8 C 67 % 0 lf 996,0 hPa 0,0 l/m 2 min 0 min 453 W/m 50,2 km/h (7 Bft) 95,74 %
11.09.2017 13:12 17,8 C 23,3 C 18,3 C 67 % 0 lf 996,0 hPa 0,0 l/m 2 min 0 min 851 W/m 33,5 km/h (5 Bft) 97,87 %
11.09.2017 13:14 17,8 C 22,8 C 18,9 C 68 % 0 lf 996,0 hPa 0,0 l/m 2 min 0 min 827 W/m 46,0 km/h (6 Bft) 93,48 %
11.09.2017 13:16 17,8 C 23,3 C 18,9 C 66 % 0 lf 996,0 hPa 0,0 l/m 2 min 0 min 821 W/m 43,9 km/h (6 Bft) 95,24 %
11.09.2017 13:18 17,9 C 23,3 C 18,3 C 66 % 0 lf 996,0 hPa 0,0 l/m 2 min 0 min 804 W/m 48,1 km/h (6 Bft) 95,83 %
11.09.2017 13:20 18,1 C 24,4 C 18,9 C 68 % 0 lf 996,0 hPa 0,0 l/m 2 min 0 min 813 W/m 35,6 km/h (5 Bft) 93,48 %
11.09.2017 13:22 18,2 C 25,0 C 18,9 C 68 % 0 lf 995,9 hPa 0,0 l/m 2 min 0 min 784 W/m 37,7 km/h (5 Bft) 95,83 %
11.09.2017 13:24 18,3 C 23,3 C 18,9 C 68 % 0 lf 996,0 hPa 0,0 l/m 2 min 0 min 689 W/m 27,2 km/h (4 Bft) 93,75 %
11.09.2017 13:26 18,2 C 21,1 C 18,3 C 67 % 0 lf 996,0 hPa 0,0 l/m 0 min 0 min 240 W/m 46,0 km/h (6 Bft) 95,83 %
11.09.2017 13:28 18,2 C 20,0 C 18,3 C 66 % 0 lf 996,0 hPa 0,0 l/m 0 min 0 min 224 W/m 35,6 km/h (5 Bft) 95,83 %
11.09.2017 13:30 18,1 C 19,4 C 17,8 C 66 % 2 lf 996,0 hPa 0,0 l/m 0 min 2 min 208 W/m 29,3 km/h (5 Bft) 97,87 %
11.09.2017 13:32 18,0 C 18,9 C 17,2 C 67 % 0 lf 996,1 hPa 0,0 l/m 0 min 2 min 263 W/m 35,6 km/h (5 Bft) 95,74 %
11.09.2017 13:34 17,9 C 18,9 C 17,8 C 67 % 0 lf 996,0 hPa 0,0 l/m 0 min 0 min 260 W/m 43,9 km/h (6 Bft) 97,87 %
11.09.2017 13:36 17,8 C 20,6 C 17,8 C 67 % 0 lf 996,1 hPa 0,0 l/m 0 min 0 min 240 W/m 43,9 km/h (6 Bft) 97,87 %
11.09.2017 13:38 17,7 C 19,4 C 17,8 C 67 % 0 lf 996,0 hPa 0,0 l/m 0 min 0 min 255 W/m 48,1 km/h (6 Bft) 97,83 %
11.09.2017 13:40 17,6 C 18,9 C 17,2 C 66 % 0 lf 996,1 hPa 0,0 l/m 0 min 0 min 208 W/m 37,7 km/h (5 Bft) 97,87 %
11.09.2017 13:42 17,6 C 18,9 C 17,2 C 66 % 0 lf 996,1 hPa 0,0 l/m 0 min 0 min 239 W/m 37,7 km/h (5 Bft) 95,74 %
11.09.2017 13:44 17,4 C 18,9 C 17,2 C 67 % 0 lf 996,1 hPa 0,0 l/m 0 min 0 min 204 W/m 37,7 km/h (5 Bft) 95,12 %
11.09.2017 13:46 17,4 C 18,3 C 16,7 C 67 % 0 lf 996,1 hPa 0,0 l/m 0 min 0 min 191 W/m 33,5 km/h (5 Bft) 97,87 %
11.09.2017 13:48 17,4 C 18,3 C 17,2 C 68 % 0 lf 996,1 hPa 0,0 l/m 0 min 0 min 253 W/m 39,7 km/h (6 Bft) 91,67 %
11.09.2017 13:50 17,4 C 18,9 C 17,8 C 68 % 0 lf 996,1 hPa 0,0 l/m 2 min 0 min 337 W/m 35,6 km/h (5 Bft) 97,92 %
11.09.2017 13:52 17,4 C 19,4 C 18,3 C 68 % 0 lf 996,1 hPa 0,0 l/m 2 min 0 min 368 W/m 29,3 km/h (5 Bft) 95,83 %
11.09.2017 13:54 17,4 C 22,2 C 18,9 C 69 % 0 lf 996,1 hPa 0,0 l/m 2 min 0 min 404 W/m 31,4 km/h (5 Bft) 95,74 %
11.09.2017 13:56 17,6 C 21,1 C 18,9 C 69 % 0 lf 996,3 hPa 0,0 l/m 2 min 0 min 367 W/m 33,5 km/h (5 Bft) 97,92 %
11.09.2017 13:58 17,6 C 20,6 C 18,3 C 67 % 0 lf 996,1 hPa 0,0 l/m 2 min 0 min 354 W/m 52,3 km/h (7 Bft) 97,92 %
11.09.2017 14:00 17,7 C 20,6 C 18,9 C 67 % 0 lf 996,2 hPa 0,0 l/m 2 min 0 min 350 W/m 31,4 km/h (5 Bft) 97,83 %
11.09.2017 14:02 17,7 C 22,2 C 18,9 C 67 % 0 lf 996,2 hPa 0,0 l/m 2 min 0 min 486 W/m 43,9 km/h (6 Bft) 93,62 %
11.09.2017 14:04 17,9 C 22,2 C 18,9 C 66 % 0 lf 996,1 hPa 0,0 l/m 2 min 0 min 826 W/m 41,8 km/h (6 Bft) 95,24 %
11.09.2017 14:06 18,0 C 23,9 C 18,9 C 66 % 0 lf 996,2 hPa 0,0 l/m 2 min 0 min 742 W/m 29,3 km/h (5 Bft) 95,74 %
11.09.2017 14:08 18,1 C 23,9 C 18,9 C 65 % 0 lf 996,2 hPa 0,0 l/m 2 min 0 min 743 W/m 41,8 km/h (6 Bft) 97,92 %
11.09.2017 14:10 18,2 C 23,9 C 19,4 C 66 % 0 lf 996,2 hPa 0,0 l/m 2 min 0 min 763 W/m 10,5 km/h (2 Bft) 97,92 %
11.09.2017 14:12 18,3 C 23,3 C 20,0 C 67 % 0 lf 996,2 hPa 0,0 l/m 2 min 0 min 702 W/m 25,1 km/h (4 Bft) 97,87 %
11.09.2017 14:14 18,4 C 23,9 C 20,0 C 67 % 0 lf 996,3 hPa 0,0 l/m 2 min 0 min 356 W/m 31,4 km/h (5 Bft) 95,83 %
11.09.2017 14:16 18,5 C 22,2 C 20,0 C 66 % 0 lf 996,2 hPa 0,0 l/m 2 min 0 min 860 W/m 43,9 km/h (6 Bft) 97,87 %
11.09.2017 14:18 18,5 C 21,1 C 19,4 C 65 % 0 lf 996,2 hPa 0,0 l/m 0 min 0 min 233 W/m 35,6 km/h (5 Bft) 95,83 %
11.09.2017 14:20 18,4 C 20,0 C 18,3 C 64 % 0 lf 996,3 hPa 0,0 l/m 0 min 0 min 202 W/m 35,6 km/h (5 Bft) 97,87 %
11.09.2017 14:22 18,4 C 18,9 C 17,8 C 64 % 0 lf 996,2 hPa 0,0 l/m 0 min 0 min 220 W/m 41,8 km/h (6 Bft) 93,62 %
11.09.2017 14:24 18,2 C 18,3 C 17,8 C 64 % 0 lf 996,3 hPa 0,0 l/m 0 min 0 min 226 W/m 41,8 km/h (6 Bft) 91,30 %
11.09.2017 14:26 18,1 C 18,3 C 17,2 C 65 % 0 lf 996,4 hPa 0,0 l/m 0 min 0 min 224 W/m 46,0 km/h (6 Bft) 95,74 %
11.09.2017 14:28 17,9 C 19,4 C 17,8 C 65 % 0 lf 996,3 hPa 0,0 l/m 0 min 0 min 250 W/m 35,6 km/h (5 Bft) 97,87 %
11.09.2017 14:30 17,9 C 18,9 C 18,3 C 65 % 0 lf 996,4 hPa 0,0 l/m 0 min 0 min 314 W/m 33,5 km/h (5 Bft) 100,00 %
11.09.2017 14:32 17,8 C 18,9 C 18,3 C 67 % 0 lf 996,3 hPa 0,0 l/m 0 min 0 min 248 W/m 23,0 km/h (4 Bft) 97,87 %
11.09.2017 14:34 17,8 C 17,8 C 17,2 C 66 % 1 lf 996,4 hPa 0,0 l/m 0 min 0 min 111 W/m 50,2 km/h (7 Bft) 97,92 %
11.09.2017 14:36 17,7 C 16,7 C 16,1 C 67 % 15 lf 996,5 hPa 0,0 l/m 0 min 2 min 111 W/m 23,0 km/h (4 Bft) 95,83 %
11.09.2017 14:38 17,7 C 16,1 C 14,4 C 69 % 15 lf 996,5 hPa 0,0 l/m 0 min 2 min 143 W/m 31,4 km/h (5 Bft) 97,92 %
11.09.2017 14:40 17,5 C 16,1 C 14,4 C 71 % 15 lf 996,5 hPa 0,0 l/m 0 min 2 min 233 W/m 27,2 km/h (4 Bft) 95,74 %
11.09.2017 14:42 17,4 C 16,7 C 15,0 C 72 % 15 lf 996,4 hPa 0,0 l/m 0 min 2 min 265 W/m 33,5 km/h (5 Bft) 100,00 %
11.09.2017 14:44 17,3 C 17,2 C 14,4 C 72 % 13 lf 996,3 hPa 0,0 l/m 0 min 2 min 254 W/m 27,2 km/h (4 Bft) 100,00 %
11.09.2017 14:46 17,2 C 17,8 C 14,4 C 72 % 3 lf 996,4 hPa 0,0 l/m 0 min 2 min 267 W/m 29,3 km/h (5 Bft) 100,00 %
11.09.2017 14:48 17,1 C 18,3 C 15,0 C 72 % 0 lf 996,4 hPa 0,0 l/m 2 min 0 min 322 W/m 23,0 km/h (4 Bft) 95,65 %
11.09.2017 14:50 17,0 C 21,1 C 15,6 C 74 % 0 lf 996,4 hPa 0,0 l/m 2 min 0 min 493 W/m 27,2 km/h (4 Bft) 100,00 %
11.09.2017 14:52 17,1 C 22,8 C 16,7 C 74 % 0 lf 996,4 hPa 0,0 l/m 2 min 0 min 772 W/m 27,2 km/h (4 Bft) 100,00 %
11.09.2017 14:54 17,1 C 21,7 C 17,2 C 73 % 0 lf 996,4 hPa 0,0 l/m 2 min 0 min 618 W/m 27,2 km/h (4 Bft) 95,74 %
11.09.2017 14:56 17,2 C 19,4 C 16,7 C 73 % 0 lf 996,5 hPa 0,0 l/m 0 min 0 min 165 W/m 29,3 km/h (5 Bft) 100,00 %
11.09.2017 14:58 17,2 C 18,9 C 16,7 C 72 % 0 lf 996,6 hPa 0,0 l/m 0 min 0 min 168 W/m 23,0 km/h (4 Bft) 97,56 %
11.09.2017 15:00 17,2 C 18,3 C 16,7 C 72 % 0 lf 996,6 hPa 0,0 l/m 0 min 0 min 176 W/m 31,4 km/h (5 Bft) 98,00 %
11.09.2017 15:02 17,2 C 17,8 C 16,7 C 70 % 0 lf 996,7 hPa 0,0 l/m 0 min 0 min 215 W/m 48,1 km/h (6 Bft) 100,00 %
11.09.2017 15:04 17,1 C 18,3 C 16,7 C 69 % 0 lf 996,6 hPa 0,0 l/m 0 min 0 min 292 W/m 41,8 km/h (6 Bft) 97,87 %
11.09.2017 15:06 17,1 C 20,0 C 17,8 C 70 % 0 lf 996,6 hPa 0,0 l/m 2 min 0 min 441 W/m 25,1 km/h (4 Bft) 95,74 %
11.09.2017 15:08 17,2 C 20,6 C 17,8 C 70 % 0 lf 996,6 hPa 0,0 l/m 2 min 0 min 497 W/m 23,0 km/h (4 Bft) 97,87 %
11.09.2017 15:10 17,2 C 21,1 C 17,8 C 70 % 0 lf 996,6 hPa 0,0 l/m 2 min 0 min 423 W/m 31,4 km/h (5 Bft) 95,65 %
11.09.2017 15:12 17,3 C 21,1 C 18,3 C 70 % 0 lf 996,6 hPa 0,0 l/m 2 min 0 min 499 W/m 16,7 km/h (3 Bft) 97,62 %
11.09.2017 15:14 17,3 C 21,7 C 18,3 C 70 % 0 lf 996,6 hPa 0,0 l/m 2 min 0 min 557 W/m 27,2 km/h (4 Bft) 93,75 %
11.09.2017 15:16 17,4 C 21,1 C 18,3 C 70 % 0 lf 996,5 hPa 0,0 l/m 2 min 0 min 558 W/m 20,9 km/h (4 Bft) 97,87 %
11.09.2017 15:18 17,5 C 22,2 C 18,3 C 70 % 0 lf 996,5 hPa 0,0 l/m 2 min 0 min 521 W/m 33,5 km/h (5 Bft) 97,92 %
11.09.2017 15:20 17,6 C 22,2 C 18,3 C 69 % 0 lf 996,5 hPa 0,0 l/m 2 min 0 min 590 W/m 29,3 km/h (5 Bft) 95,83 %
11.09.2017 15:22 17,7 C 22,2 C 18,3 C 69 % 0 lf 996,5 hPa 0,0 l/m 2 min 0 min 581 W/m 31,4 km/h (5 Bft) 97,92 %
11.09.2017 15:24 17,7 C 21,7 C 17,8 C 69 % 0 lf 996,4 hPa 0,0 l/m 2 min 0 min 334 W/m 20,9 km/h (4 Bft) 95,74 %
11.09.2017 15:26 17,8 C 22,2 C 17,8 C 69 % 0 lf 996,5 hPa 0,0 l/m 2 min 0 min 387 W/m 29,3 km/h (5 Bft) 95,74 %
11.09.2017 15:28 17,9 C 21,1 C 18,3 C 69 % 0 lf 996,5 hPa 0,0 l/m 2 min 0 min 340 W/m 20,9 km/h (4 Bft) 93,62 %
11.09.2017 15:30 17,9 C 19,4 C 17,8 C 68 % 0 lf 996,5 hPa 0,0 l/m 0 min 0 min 201 W/m 41,8 km/h (6 Bft) 91,49 %
11.09.2017 15:32 17,9 C 18,9 C 17,2 C 66 % 2 lf 996,6 hPa 0,0 l/m 0 min 0 min 180 W/m 39,7 km/h (6 Bft) 91,49 %
11.09.2017 15:34 17,8 C 18,3 C 17,2 C 66 % 1 lf 996,5 hPa 0,0 l/m 0 min 0 min 170 W/m 52,3 km/h (7 Bft) 93,48 %
11.09.2017 15:36 17,7 C 17,8 C 16,7 C 67 % 2 lf 996,7 hPa 0,0 l/m 0 min 2 min 170 W/m 46,0 km/h (6 Bft) 95,24 %
11.09.2017 15:38 17,6 C 17,2 C 16,1 C 67 % 0 lf 996,6 hPa 0,0 l/m 0 min 2 min 219 W/m 46,0 km/h (6 Bft) 95,83 %
11.09.2017 15:40 17,5 C 18,3 C 16,7 C 68 % 0 lf 996,7 hPa 0,0 l/m 0 min 0 min 214 W/m 35,6 km/h (5 Bft) 95,74 %
11.09.2017 15:42 17,5 C 20,0 C 17,2 C 69 % 2 lf 996,7 hPa 0,0 l/m 2 min 0 min 618 W/m 41,8 km/h (6 Bft) 95,83 %
11.09.2017 15:44 17,4 C 18,9 C 16,7 C 69 % 0 lf 996,7 hPa 0,0 l/m 2 min 2 min 757 W/m 41,8 km/h (6 Bft) 95,83 %
11.09.2017 15:46 17,4 C 18,9 C 16,7 C 69 % 0 lf 996,6 hPa 0,0 l/m 0 min 0 min 251 W/m 29,3 km/h (5 Bft) 89,36 %
11.09.2017 15:48 17,4 C 18,9 C 17,2 C 69 % 0 lf 996,6 hPa 0,0 l/m 0 min 0 min 268 W/m 20,9 km/h (4 Bft) 95,83 %
11.09.2017 15:50 17,4 C 20,0 C 17,8 C 69 % 0 lf 996,6 hPa 0,0 l/m 2 min 0 min 306 W/m 25,1 km/h (4 Bft) 95,74 %
11.09.2017 15:52 17,5 C 21,7 C 18,9 C 70 % 0 lf 996,6 hPa 0,0 l/m 2 min 0 min 599 W/m 14,6 km/h (3 Bft) 95,74 %
11.09.2017 15:54 17,6 C 20,6 C 18,3 C 70 % 0 lf 996,5 hPa 0,0 l/m 2 min 0 min 590 W/m 37,7 km/h (5 Bft) 93,75 %
11.09.2017 15:56 17,7 C 20,6 C 18,3 C 69 % 0 lf 996,5 hPa 0,0 l/m 2 min 0 min 286 W/m 25,1 km/h (4 Bft) 95,74 %
11.09.2017 15:58 17,7 C 19,4 C 18,3 C 68 % 0 lf 996,6 hPa 0,0 l/m 0 min 0 min 267 W/m 35,6 km/h (5 Bft) 95,83 %
11.09.2017 16:00 17,8 C 19,4 C 18,3 C 67 % 0 lf 996,5 hPa 0,0 l/m 0 min 0 min 192 W/m 33,5 km/h (5 Bft) 95,74 %
11.09.2017 16:02 17,8 C 19,4 C 18,3 C 67 % 0 lf 996,7 hPa 0,0 l/m 0 min 0 min 240 W/m 25,1 km/h (4 Bft) 97,87 %
11.09.2017 16:04 17,8 C 20,6 C 18,3 C 67 % 0 lf 996,7 hPa 0,0 l/m 2 min 0 min 348 W/m 35,6 km/h (5 Bft) 95,74 %
11.09.2017 16:06 17,9 C 21,1 C 18,9 C 67 % 0 lf 996,6 hPa 0,0 l/m 2 min 0 min 348 W/m 25,1 km/h (4 Bft) 92,68 %
11.09.2017 16:08 18,0 C 20,0 C 18,9 C 66 % 0 lf 996,6 hPa 0,0 l/m 0 min 0 min 215 W/m 31,4 km/h (5 Bft) 100,00 %
11.09.2017 16:10 18,1 C 18,9 C 18,3 C 65 % 0 lf 996,7 hPa 0,0 l/m 0 min 0 min 183 W/m 33,5 km/h (5 Bft) 93,75 %
11.09.2017 16:12 18,0 C 18,9 C 17,8 C 64 % 0 lf 996,7 hPa 0,0 l/m 0 min 0 min 182 W/m 33,5 km/h (5 Bft) 97,87 %
11.09.2017 16:14 18,0 C 18,3 C 17,8 C 64 % 0 lf 996,7 hPa 0,0 l/m 0 min 0 min 235 W/m 31,4 km/h (5 Bft) 97,87 %
11.09.2017 16:16 17,9 C 18,9 C 17,8 C 64 % 0 lf 996,8 hPa 0,0 l/m 0 min 0 min 239 W/m 35,6 km/h (5 Bft) 95,83 %
11.09.2017 16:18 17,9 C 18,9 C 17,8 C 64 % 0 lf 996,7 hPa 0,0 l/m 0 min 0 min 196 W/m 25,1 km/h (4 Bft) 91,67 %
11.09.2017 16:20 17,9 C 18,3 C 17,8 C 64 % 0 lf 996,8 hPa 0,0 l/m 0 min 0 min 167 W/m 33,5 km/h (5 Bft) 93,62 %
11.09.2017 16:22 17,9 C 18,3 C 17,8 C 64 % 0 lf 996,9 hPa 0,0 l/m 0 min 0 min 154 W/m 29,3 km/h (5 Bft) 93,62 %
11.09.2017 16:24 17,8 C 17,8 C 17,2 C 64 % 0 lf 996,9 hPa 0,0 l/m 0 min 0 min 130 W/m 37,7 km/h (5 Bft) 95,74 %
11.09.2017 16:26 17,8 C 17,8 C 17,2 C 65 % 0 lf 996,9 hPa 0,0 l/m 0 min 0 min 125 W/m 39,7 km/h (6 Bft) 95,74 %
11.09.2017 16:28 17,7 C 18,9 C 17,2 C 64 % 0 lf 996,8 hPa 0,0 l/m 0 min 0 min 231 W/m 37,7 km/h (5 Bft) 93,62 %
11.09.2017 16:30 17,8 C 20,6 C 18,3 C 65 % 0 lf 996,8 hPa 0,0 l/m 2 min 0 min 417 W/m 29,3 km/h (5 Bft) 95,74 %
11.09.2017 16:32 17,8 C 21,1 C 18,3 C 65 % 0 lf 996,7 hPa 0,0 l/m 2 min 0 min 686 W/m 33,5 km/h (5 Bft) 95,65 %
11.09.2017 16:34 17,9 C 21,1 C 18,9 C 66 % 0 lf 996,9 hPa 0,0 l/m 2 min 0 min 491 W/m 29,3 km/h (5 Bft) 93,62 %
11.09.2017 16:36 18,0 C 20,0 C 18,9 C 65 % 0 lf 996,8 hPa 0,0 l/m 2 min 0 min 311 W/m 35,6 km/h (5 Bft) 95,74 %
11.09.2017 16:38 18,0 C 19,4 C 18,9 C 65 % 0 lf 996,8 hPa 0,0 l/m 2 min 0 min 245 W/m 33,5 km/h (5 Bft) 93,62 %
11.09.2017 16:40 18,1 C 18,9 C 18,3 C 65 % 0 lf 996,8 hPa 0,0 l/m 0 min 0 min 201 W/m 31,4 km/h (5 Bft) 93,62 %
11.09.2017 16:42 18,0 C 18,9 C 17,8 C 64 % 0 lf 996,8 hPa 0,0 l/m 0 min 0 min 179 W/m 39,7 km/h (6 Bft) 95,12 %
11.09.2017 16:44 18,0 C 18,3 C 17,8 C 65 % 0 lf 996,9 hPa 0,0 l/m 0 min 0 min 170 W/m 35,6 km/h (5 Bft) 95,83 %
11.09.2017 16:46 17,9 C 18,3 C 17,8 C 64 % 0 lf 996,9 hPa 0,0 l/m 0 min 0 min 170 W/m 39,7 km/h (6 Bft) 93,75 %
11.09.2017 16:48 17,9 C 18,3 C 17,2 C 64 % 0 lf 996,9 hPa 0,0 l/m 0 min 0 min 184 W/m 37,7 km/h (5 Bft) 95,74 %
11.09.2017 16:50 17,8 C 18,3 C 17,8 C 64 % 0 lf 996,9 hPa 0,0 l/m 0 min 0 min 202 W/m 43,9 km/h (6 Bft) 95,65 %
11.09.2017 16:52 17,8 C 18,3 C 17,8 C 64 % 0 lf 996,9 hPa 0,0 l/m 0 min 0 min 188 W/m 43,9 km/h (6 Bft) 95,74 %
11.09.2017 16:54 17,7 C 18,3 C 17,2 C 64 % 0 lf 996,8 hPa 0,0 l/m 0 min 0 min 155 W/m 35,6 km/h (5 Bft) 97,87 %
11.09.2017 16:56 17,7 C 17,8 C 17,2 C 64 % 0 lf 996,9 hPa 0,0 l/m 0 min 0 min 114 W/m 41,8 km/h (6 Bft) 95,74 %
11.09.2017 16:58 17,6 C 17,8 C 16,7 C 65 % 0 lf 996,9 hPa 0,0 l/m 0 min 0 min 91 W/m 27,2 km/h (4 Bft) 97,87 %
11.09.2017 17:00 17,6 C 17,8 C 16,7 C 65 % 0 lf 996,9 hPa 0,0 l/m 0 min 0 min 83 W/m 29,3 km/h (5 Bft) 97,87 %
11.09.2017 17:02 17,6 C 17,2 C 16,7 C 65 % 0 lf 996,9 hPa 0,0 l/m 0 min 0 min 56 W/m 33,5 km/h (5 Bft) 95,65 %
11.09.2017 17:04 17,5 C 17,2 C 16,1 C 66 % 0 lf 996,9 hPa 0,0 l/m 0 min 0 min 43 W/m 35,6 km/h (5 Bft) 97,87 %
11.09.2017 17:06 17,4 C 17,2 C 16,1 C 66 % 0 lf 997,0 hPa 0,0 l/m 0 min 0 min 60 W/m 35,6 km/h (5 Bft) 97,87 %
11.09.2017 17:08 17,4 C 17,2 C 16,1 C 66 % 0 lf 997,0 hPa 0,0 l/m 0 min 0 min 88 W/m 31,4 km/h (5 Bft) 95,74 %
11.09.2017 17:10 17,3 C 17,2 C 16,1 C 66 % 0 lf 997,0 hPa 0,0 l/m 0 min 0 min 94 W/m 37,7 km/h (5 Bft) 97,87 %
11.09.2017 17:12 17,3 C 17,2 C 16,7 C 66 % 0 lf 997,0 hPa 0,0 l/m 0 min 0 min 91 W/m 27,2 km/h (4 Bft) 95,65 %
11.09.2017 17:14 17,3 C 17,2 C 16,1 C 67 % 0 lf 997,0 hPa 0,0 l/m 0 min 0 min 88 W/m 27,2 km/h (4 Bft) 100,00 %
11.09.2017 17:16 17,2 C 17,2 C 16,1 C 67 % 0 lf 997,0 hPa 0,0 l/m 0 min 0 min 84 W/m 25,1 km/h (4 Bft) 97,87 %
11.09.2017 17:18 17,2 C 17,2 C 16,1 C 67 % 0 lf 997,0 hPa 0,0 l/m 0 min 0 min 69 W/m 20,9 km/h (4 Bft) 97,87 %
11.09.2017 17:20 17,2 C 17,2 C 16,1 C 67 % 0 lf 997,1 hPa 0,0 l/m 0 min 0 min 49 W/m 33,5 km/h (5 Bft) 97,87 %
11.09.2017 17:22 17,1 C 16,7 C 16,1 C 67 % 0 lf 997,0 hPa 0,0 l/m 0 min 0 min 46 W/m 27,2 km/h (4 Bft) 100,00 %
11.09.2017 17:24 17,1 C 16,7 C 15,6 C 67 % 0 lf 997,0 hPa 0,0 l/m 0 min 0 min 45 W/m 35,6 km/h (5 Bft) 97,83 %
11.09.2017 17:26 17,1 C 16,7 C 15,6 C 67 % 2 lf 997,1 hPa 0,0 l/m 0 min 0 min 45 W/m 29,3 km/h (5 Bft) 100,00 %
11.09.2017 17:28 17,0 C 16,7 C 15,6 C 67 % 0 lf 997,0 hPa 0,0 l/m 0 min 0 min 48 W/m 35,6 km/h (5 Bft) 100,00 %
11.09.2017 17:30 17,0 C 16,7 C 15,6 C 67 % 0 lf 997,0 hPa 0,0 l/m 0 min 0 min 46 W/m 31,4 km/h (5 Bft) 95,74 %
11.09.2017 17:32 16,9 C 16,7 C 15,6 C 68 % 1 lf 997,0 hPa 0,0 l/m 0 min 0 min 58 W/m 27,2 km/h (4 Bft) 100,00 %
11.09.2017 17:34 16,9 C 16,7 C 15,6 C 68 % 1 lf 997,1 hPa 0,0 l/m 0 min 2 min 60 W/m 20,9 km/h (4 Bft) 100,00 %
11.09.2017 17:36 16,9 C 16,7 C 15,6 C 68 % 0 lf 997,1 hPa 0,0 l/m 0 min 0 min 51 W/m 23,0 km/h (4 Bft) 100,00 %
11.09.2017 17:38 16,9 C 16,1 C 15,0 C 69 % 15 lf 997,3 hPa 0,0 l/m 0 min 2 min 47 W/m 37,7 km/h (5 Bft) 97,87 %
11.09.2017 17:40 16,9 C 15,0 C 13,3 C 71 % 15 lf 997,4 hPa 0,0 l/m 0 min 2 min 46 W/m 46,0 km/h (6 Bft) 97,87 %
11.09.2017 17:42 16,7 C 14,4 C 12,8 C 73 % 15 lf 997,4 hPa 0,0 l/m 0 min 2 min 42 W/m 35,6 km/h (5 Bft) 100,00 %
11.09.2017 17:44 16,6 C 14,4 C 12,2 C 74 % 15 lf 997,4 hPa 0,0 l/m 0 min 2 min 47 W/m 37,7 km/h (5 Bft) 100,00 %
11.09.2017 17:46 16,4 C 13,9 C 12,2 C 75 % 15 lf 997,4 hPa 0,0 l/m 0 min 2 min 51 W/m 29,3 km/h (5 Bft) 97,87 %
11.09.2017 17:48 16,3 C 13,9 C 12,2 C 77 % 15 lf 997,3 hPa 0,2 l/m 0 min 2 min 73 W/m 33,5 km/h (5 Bft) 97,14 %
11.09.2017 17:50 16,1 C 13,9 C 12,2 C 78 % 15 lf 997,3 hPa 0,0 l/m 0 min 2 min 92 W/m 25,1 km/h (4 Bft) 98,28 %
11.09.2017 17:52 16,0 C 13,9 C 12,2 C 78 % 15 lf 997,3 hPa 0,0 l/m 0 min 2 min 93 W/m 23,0 km/h (4 Bft) 100,00 %
11.09.2017 17:54 15,9 C 13,9 C 12,2 C 79 % 15 lf 997,3 hPa 0,0 l/m 0 min 0 min 80 W/m 31,4 km/h (5 Bft) 100,00 %
11.09.2017 17:56 15,7 C 13,9 C 12,2 C 79 % 15 lf 997,3 hPa 0,0 l/m 0 min 0 min 68 W/m 29,3 km/h (5 Bft) 100,00 %
11.09.2017 17:58 15,6 C 14,4 C 12,2 C 80 % 15 lf 997,3 hPa 0,0 l/m 0 min 0 min 59 W/m 29,3 km/h (5 Bft) 98,31 %
11.09.2017 18:00 15,5 C 14,4 C 12,2 C 81 % 15 lf 997,4 hPa 0,0 l/m 0 min 0 min 57 W/m 23,0 km/h (4 Bft) 97,83 %
11.09.2017 18:02 15,4 C 14,4 C 12,2 C 81 % 15 lf 997,5 hPa 0,0 l/m 0 min 0 min 56 W/m 25,1 km/h (4 Bft) 93,62 %
11.09.2017 18:04 15,3 C 14,4 C 12,2 C 82 % 15 lf 997,6 hPa 0,0 l/m 0 min 0 min 56 W/m 20,9 km/h (4 Bft) 95,74 %
11.09.2017 18:06 15,2 C 14,4 C 12,8 C 82 % 15 lf 997,5 hPa 0,0 l/m 0 min 2 min 63 W/m 35,6 km/h (5 Bft) 95,74 %
11.09.2017 18:10 15,1 C 14,4 C 12,2 C 83 % 15 lf 997,5 hPa 0,0 l/m 0 min 4 min 62 W/m 20,9 km/h (4 Bft) 97,75 %
11.09.2017 18:12 15,1 C 14,4 C 12,2 C 83 % 13 lf 997,4 hPa 0,0 l/m 0 min 2 min 60 W/m 18,8 km/h (3 Bft) 95,74 %
11.09.2017 18:14 15,0 C 13,9 C 12,2 C 83 % 12 lf 997,4 hPa 0,0 l/m 0 min 2 min 60 W/m 23,0 km/h (4 Bft) 95,74 %
11.09.2017 18:16 14,9 C 13,9 C 12,2 C 84 % 13 lf 997,4 hPa 0,0 l/m 0 min 2 min 62 W/m 14,6 km/h (3 Bft) 93,62 %
11.09.2017 18:18 14,9 C 13,9 C 12,2 C 84 % 12 lf 997,3 hPa 0,0 l/m 0 min 2 min 59 W/m 10,5 km/h (2 Bft) 91,49 %
11.09.2017 18:20 14,9 C 13,9 C 12,8 C 84 % 10 lf 997,3 hPa 0,0 l/m 0 min 2 min 60 W/m 14,6 km/h (3 Bft) 86,96 %
11.09.2017 18:22 14,9 C 13,9 C 12,2 C 84 % 8 lf 997,3 hPa 0,0 l/m 0 min 2 min 67 W/m 18,8 km/h (3 Bft) 91,49 %
11.09.2017 18:24 14,9 C 13,9 C 12,2 C 85 % 7 lf 997,3 hPa 0,0 l/m 0 min 2 min 66 W/m 16,7 km/h (3 Bft) 93,62 %
11.09.2017 18:26 14,8 C 13,9 C 12,2 C 85 % 4 lf 997,3 hPa 0,0 l/m 0 min 0 min 63 W/m 14,6 km/h (3 Bft) 91,49 %
11.09.2017 18:28 14,8 C 13,9 C 12,8 C 85 % 1 lf 997,3 hPa 0,0 l/m 0 min 0 min 61 W/m 12,6 km/h (3 Bft) 95,65 %
11.09.2017 18:30 14,8 C 14,4 C 12,8 C 85 % 0 lf 997,3 hPa 0,0 l/m 0 min 0 min 60 W/m 16,7 km/h (3 Bft) 91,49 %
11.09.2017 18:32 14,8 C 14,4 C 12,8 C 85 % 0 lf 997,4 hPa 0,0 l/m 0 min 2 min 56 W/m 23,0 km/h (4 Bft) 93,48 %
11.09.2017 18:34 14,8 C 14,4 C 12,8 C 85 % 2 lf 997,2 hPa 0,0 l/m 0 min 0 min 53 W/m 14,6 km/h (3 Bft) 93,62 %
11.09.2017 18:36 14,8 C 14,4 C 12,8 C 85 % 1 lf 997,2 hPa 0,0 l/m 0 min 2 min 52 W/m 18,8 km/h (3 Bft) 91,49 %
11.09.2017 18:38 14,8 C 14,4 C 12,8 C 85 % 1 lf 997,3 hPa 0,0 l/m 0 min 2 min 49 W/m 18,8 km/h (3 Bft) 91,49 %
11.09.2017 18:40 14,7 C 14,4 C 12,8 C 85 % 4 lf 997,3 hPa 0,0 l/m 0 min 2 min 43 W/m 20,9 km/h (4 Bft) 91,49 %
11.09.2017 18:42 14,7 C 13,9 C 12,8 C 85 % 14 lf 997,4 hPa 0,0 l/m 0 min 2 min 41 W/m 18,8 km/h (3 Bft) 91,49 %
11.09.2017 18:44 14,7 C 13,9 C 12,2 C 85 % 15 lf 997,6 hPa 0,0 l/m 0 min 2 min 37 W/m 25,1 km/h (4 Bft) 93,48 %
11.09.2017 18:46 14,7 C 13,3 C 12,2 C 85 % 15 lf 997,6 hPa 0,0 l/m 0 min 2 min 39 W/m 23,0 km/h (4 Bft) 91,49 %
11.09.2017 18:48 14,7 C 12,8 C 11,7 C 85 % 15 lf 997,7 hPa 0,0 l/m 0 min 2 min 41 W/m 43,9 km/h (6 Bft) 91,49 %
11.09.2017 18:50 14,7 C 12,8 C 11,7 C 85 % 15 lf 997,6 hPa 0,0 l/m 0 min 2 min 34 W/m 29,3 km/h (5 Bft) 93,62 %
11.09.2017 18:52 14,6 C 12,8 C 12,2 C 85 % 15 lf 997,6 hPa 0,0 l/m 0 min 0 min 33 W/m 27,2 km/h (4 Bft) 95,74 %
11.09.2017 18:54 14,6 C 13,3 C 12,2 C 85 % 15 lf 997,6 hPa 0,0 l/m 0 min 0 min 36 W/m 35,6 km/h (5 Bft) 93,62 %
11.09.2017 18:56 14,6 C 13,3 C 12,2 C 85 % 15 lf 997,6 hPa 0,0 l/m 0 min 0 min 41 W/m 29,3 km/h (5 Bft) 95,65 %
11.09.2017 18:58 14,5 C 13,3 C 12,2 C 85 % 14 lf 997,5 hPa 0,0 l/m 0 min 0 min 60 W/m 20,9 km/h (4 Bft) 95,74 %
11.09.2017 19:00 14,5 C 13,3 C 12,2 C 85 % 12 lf 997,5 hPa 0,0 l/m 0 min 0 min 52 W/m 35,6 km/h (5 Bft) 93,62 %
11.09.2017 19:02 14,4 C 13,9 C 12,2 C 85 % 7 lf 997,4 hPa 0,0 l/m 0 min 0 min 59 W/m 31,4 km/h (5 Bft) 100,00 %
11.09.2017 19:04 14,4 C 13,9 C 12,2 C 85 % 3 lf 997,4 hPa 0,0 l/m 0 min 0 min 54 W/m 25,1 km/h (4 Bft) 97,87 %
11.09.2017 19:06 14,4 C 13,9 C 12,2 C 85 % 0 lf 997,5 hPa 0,0 l/m 0 min 0 min 51 W/m 29,3 km/h (5 Bft) 100,00 %
11.09.2017 19:08 14,4 C 13,9 C 12,2 C 85 % 0 lf 997,4 hPa 0,0 l/m 0 min 0 min 43 W/m 20,9 km/h (4 Bft) 97,87 %
11.09.2017 19:10 14,3 C 13,9 C 12,2 C 85 % 0 lf 997,4 hPa 0,0 l/m 0 min 0 min 38 W/m 18,8 km/h (3 Bft) 95,74 %
11.09.2017 19:12 14,3 C 13,9 C 12,2 C 85 % 0 lf 997,4 hPa 0,0 l/m 0 min 0 min 33 W/m 16,7 km/h (3 Bft) 100,00 %
11.09.2017 19:14 14,3 C 13,9 C 12,2 C 85 % 0 lf 997,3 hPa 0,0 l/m 0 min 0 min 30 W/m 18,8 km/h (3 Bft) 100,00 %
11.09.2017 19:16 14,3 C 13,9 C 12,2 C 85 % 0 lf 997,4 hPa 0,0 l/m 0 min 0 min 32 W/m 16,7 km/h (3 Bft) 100,00 %
11.09.2017 19:18 14,3 C 13,9 C 12,2 C 85 % 0 lf 997,4 hPa 0,0 l/m 0 min 0 min 28 W/m 16,7 km/h (3 Bft) 100,00 %
11.09.2017 19:20 14,3 C 13,9 C 12,2 C 85 % 0 lf 997,5 hPa 0,0 l/m 0 min 0 min 25 W/m 20,9 km/h (4 Bft) 100,00 %
11.09.2017 19:22 14,3 C 14,4 C 12,2 C 85 % 0 lf 997,5 hPa 0,0 l/m 0 min 0 min 21 W/m 16,7 km/h (3 Bft) 95,74 %
11.09.2017 19:24 14,3 C 14,4 C 12,2 C 85 % 0 lf 997,5 hPa 0,0 l/m 0 min 0 min 22 W/m 18,8 km/h (3 Bft) 100,00 %
11.09.2017 19:26 14,2 C 14,4 C 12,2 C 85 % 0 lf 997,6 hPa 0,0 l/m 0 min 0 min 25 W/m 18,8 km/h (3 Bft) 97,87 %
11.09.2017 19:28 14,3 C 14,4 C 12,2 C 85 % 0 lf 997,6 hPa 0,0 l/m 0 min 0 min 26 W/m 23,0 km/h (4 Bft) 95,74 %
11.09.2017 19:30 14,3 C 14,4 C 12,2 C 85 % 0 lf 997,6 hPa 0,0 l/m 0 min 0 min 22 W/m 16,7 km/h (3 Bft) 97,83 %
11.09.2017 19:32 14,3 C 14,4 C 12,8 C 85 % 0 lf 997,6 hPa 0,0 l/m 0 min 0 min 24 W/m 14,6 km/h (3 Bft) 97,87 %
11.09.2017 19:34 14,3 C 14,4 C 12,8 C 85 % 0 lf 997,6 hPa 0,0 l/m 2 min 0 min 26 W/m 27,2 km/h (4 Bft) 100,00 %
11.09.2017 19:36 14,3 C 14,4 C 12,8 C 85 % 0 lf 997,6 hPa 0,0 l/m 2 min 0 min 26 W/m 27,2 km/h (4 Bft) 97,87 %
11.09.2017 19:38 14,3 C 14,4 C 12,8 C 85 % 0 lf 997,6 hPa 0,0 l/m 2 min 0 min 24 W/m 23,0 km/h (4 Bft) 100,00 %
11.09.2017 19:40 14,3 C 14,4 C 12,8 C 85 % 0 lf 997,6 hPa 0,0 l/m 2 min 0 min 21 W/m 18,8 km/h (3 Bft) 100,00 %
11.09.2017 19:42 14,3 C 14,4 C 12,2 C 85 % 0 lf 997,7 hPa 0,0 l/m 0 min 0 min 19 W/m 12,6 km/h (3 Bft) 100,00 %
11.09.2017 19:44 14,3 C 14,4 C 12,2 C 85 % 0 lf 997,8 hPa 0,0 l/m 0 min 0 min 18 W/m 23,0 km/h (4 Bft) 95,74 %
11.09.2017 19:46 14,3 C 14,4 C 12,8 C 85 % 0 lf 997,7 hPa 0,0 l/m 0 min 0 min 13 W/m 29,3 km/h (5 Bft) 93,62 %
11.09.2017 19:48 14,4 C 14,4 C 12,8 C 85 % 0 lf 997,7 hPa 0,0 l/m 0 min 0 min 11 W/m 16,7 km/h (3 Bft) 100,00 %
11.09.2017 19:50 14,4 C 14,4 C 12,8 C 85 % 0 lf 997,8 hPa 0,0 l/m 0 min 0 min 11 W/m 12,6 km/h (3 Bft) 97,87 %
11.09.2017 19:52 14,4 C 14,4 C 12,8 C 85 % 0 lf 997,8 hPa 0,0 l/m 0 min 0 min 9 W/m 20,9 km/h (4 Bft) 97,87 %
11.09.2017 19:54 14,4 C 14,4 C 12,8 C 85 % 0 lf 997,8 hPa 0,0 l/m 0 min 0 min 7 W/m 14,6 km/h (3 Bft) 97,83 %
11.09.2017 19:56 14,4 C 14,4 C 12,8 C 85 % 0 lf 998,0 hPa 0,2 l/m 0 min 0 min 7 W/m 31,4 km/h (5 Bft) 95,74 %
11.09.2017 19:58 14,4 C 14,4 C 12,8 C 85 % 0 lf 998,0 hPa 0,0 l/m 0 min 0 min 5 W/m 27,2 km/h (4 Bft) 93,62 %
11.09.2017 20:00 14,4 C 14,4 C 12,8 C 84 % 0 lf 997,9 hPa 0,0 l/m 0 min 0 min 6 W/m 20,9 km/h (4 Bft) 97,87 %
11.09.2017 20:02 14,4 C 14,4 C 12,8 C 84 % 0 lf 997,9 hPa 0,0 l/m 0 min 0 min 5 W/m 23,0 km/h (4 Bft) 93,62 %
11.09.2017 20:04 14,4 C 14,4 C 12,8 C 84 % 0 lf 997,9 hPa 0,0 l/m 0 min 0 min 5 W/m 23,0 km/h (4 Bft) 95,24 %
11.09.2017 20:06 14,4 C 14,4 C 12,8 C 84 % 0 lf 998,0 hPa 0,0 l/m 0 min 0 min 5 W/m 27,2 km/h (4 Bft) 97,87 %
11.09.2017 20:08 14,4 C 14,4 C 12,8 C 84 % 0 lf 997,9 hPa 0,0 l/m 0 min 0 min 5 W/m 35,6 km/h (5 Bft) 95,83 %
11.09.2017 20:10 14,4 C 14,4 C 12,8 C 84 % 0 lf 998,0 hPa 0,0 l/m 0 min 0 min 5 W/m 35,6 km/h (5 Bft) 93,48 %
11.09.2017 20:12 14,4 C 14,4 C 12,8 C 84 % 0 lf 998,1 hPa 0,0 l/m 0 min 0 min 5 W/m 27,2 km/h (4 Bft) 97,92 %
11.09.2017 20:14 14,4 C 14,4 C 12,8 C 84 % 0 lf 998,0 hPa 0,0 l/m 0 min 0 min 5 W/m 20,9 km/h (4 Bft) 93,75 %
11.09.2017 20:16 14,4 C 14,4 C 12,8 C 84 % 0 lf 998,1 hPa 0,0 l/m 0 min 0 min 2 W/m 25,1 km/h (4 Bft) 93,62 %
11.09.2017 20:18 14,4 C 13,9 C 12,8 C 84 % 0 lf 998,0 hPa 0,0 l/m 0 min 0 min 0 W/m 25,1 km/h (4 Bft) 95,74 %
11.09.2017 20:20 14,4 C 13,9 C 12,8 C 83 % 0 lf 998,0 hPa 0,0 l/m 0 min 0 min 0 W/m 14,6 km/h (3 Bft) 95,74 %
11.09.2017 20:22 14,4 C 13,9 C 12,8 C 83 % 0 lf 998,1 hPa 0,0 l/m 0 min 0 min 0 W/m 23,0 km/h (4 Bft) 95,65 %
11.09.2017 20:24 14,4 C 13,9 C 12,8 C 83 % 0 lf 998,1 hPa 0,0 l/m 0 min 0 min 0 W/m 20,9 km/h (4 Bft) 95,83 %
11.09.2017 20:26 14,4 C 13,9 C 12,8 C 84 % 0 lf 998,2 hPa 0,0 l/m 0 min 0 min 2 W/m 29,3 km/h (5 Bft) 95,74 %
11.09.2017 20:28 14,4 C 13,9 C 12,8 C 84 % 0 lf 998,2 hPa 0,0 l/m 0 min 0 min 0 W/m 18,8 km/h (3 Bft) 95,74 %
11.09.2017 20:30 14,4 C 13,9 C 12,8 C 84 % 0 lf 998,2 hPa 0,0 l/m 0 min 0 min 0 W/m 29,3 km/h (5 Bft) 95,74 %
11.09.2017 20:32 14,4 C 13,9 C 12,8 C 84 % 0 lf 998,2 hPa 0,0 l/m 0 min 0 min 0 W/m 23,0 km/h (4 Bft) 93,62 %
11.09.2017 20:34 14,4 C 13,9 C 12,8 C 84 % 0 lf 998,1 hPa 0,0 l/m 0 min 0 min 5 W/m 20,9 km/h (4 Bft) 95,74 %
11.09.2017 20:36 14,4 C 13,9 C 12,8 C 84 % 0 lf 998,3 hPa 0,0 l/m 0 min 0 min 5 W/m 29,3 km/h (5 Bft) 95,74 %
11.09.2017 20:38 14,3 C 13,9 C 12,8 C 84 % 0 lf 998,2 hPa 0,0 l/m 0 min 0 min 5 W/m 14,6 km/h (3 Bft) 93,62 %
11.09.2017 20:40 14,3 C 13,9 C 12,8 C 84 % 0 lf 998,2 hPa 0,0 l/m 0 min 0 min 1 W/m 20,9 km/h (4 Bft) 95,65 %
11.09.2017 20:42 14,3 C 13,9 C 12,2 C 84 % 0 lf 998,3 hPa 0,0 l/m 0 min 0 min 5 W/m 14,6 km/h (3 Bft) 95,74 %
11.09.2017 20:44 14,3 C 13,9 C 12,8 C 84 % 0 lf 998,3 hPa 0,0 l/m 0 min 0 min 5 W/m 27,2 km/h (4 Bft) 97,62 %
11.09.2017 20:46 14,2 C 13,9 C 12,2 C 84 % 0 lf 998,4 hPa 0,0 l/m 0 min 0 min 5 W/m 23,0 km/h (4 Bft) 95,74 %
11.09.2017 20:48 14,2 C 13,9 C 12,2 C 84 % 0 lf 998,3 hPa 0,0 l/m 0 min 0 min 5 W/m 20,9 km/h (4 Bft) 95,74 %
11.09.2017 20:50 14,2 C 13,9 C 12,8 C 84 % 0 lf 998,3 hPa 0,0 l/m 0 min 0 min 5 W/m 18,8 km/h (3 Bft) 93,75 %
11.09.2017 20:52 14,2 C 13,9 C 12,2 C 84 % 0 lf 998,4 hPa 0,0 l/m 0 min 0 min 5 W/m 23,0 km/h (4 Bft) 95,74 %
11.09.2017 20:54 14,2 C 13,9 C 12,2 C 84 % 0 lf 998,4 hPa 0,0 l/m 0 min 0 min 5 W/m 23,0 km/h (4 Bft) 100,00 %
11.09.2017 20:56 14,2 C 13,9 C 12,8 C 84 % 0 lf 998,4 hPa 0,0 l/m 0 min 0 min 0 W/m 31,4 km/h (5 Bft) 100,00 %
11.09.2017 20:58 14,2 C 13,9 C 12,8 C 83 % 0 lf 998,3 hPa 0,0 l/m 0 min 0 min 0 W/m 25,1 km/h (4 Bft) 97,83 %
11.09.2017 21:00 14,2 C 13,9 C 12,2 C 83 % 0 lf 998,3 hPa 0,0 l/m 0 min 0 min 0 W/m 18,8 km/h (3 Bft) 89,36 %
11.09.2017 21:02 14,2 C 13,9 C 12,2 C 83 % 0 lf 998,3 hPa 0,0 l/m 0 min 0 min 1 W/m 25,1 km/h (4 Bft) 95,92 %
11.09.2017 21:04 14,2 C 13,9 C 12,2 C 83 % 0 lf 998,3 hPa 0,0 l/m 0 min 0 min 5 W/m 20,9 km/h (4 Bft) 95,74 %
11.09.2017 21:06 14,2 C 13,9 C 12,2 C 83 % 0 lf 998,3 hPa 0,0 l/m 0 min 0 min 0 W/m 29,3 km/h (5 Bft) 95,74 %
11.09.2017 21:08 14,2 C 13,9 C 12,2 C 83 % 0 lf 998,3 hPa 0,0 l/m 0 min 0 min 5 W/m 23,0 km/h (4 Bft) 93,62 %
11.09.2017 21:10 14,2 C 13,9 C 12,2 C 83 % 0 lf 998,3 hPa 0,0 l/m 0 min 0 min 5 W/m 14,6 km/h (3 Bft) 95,74 %
11.09.2017 21:12 14,2 C 13,9 C 12,2 C 83 % 0 lf 998,4 hPa 0,0 l/m 0 min 0 min 5 W/m 18,8 km/h (3 Bft) 95,12 %
11.09.2017 21:14 14,2 C 13,9 C 12,2 C 83 % 0 lf 998,2 hPa 0,0 l/m 0 min 0 min 3 W/m 33,5 km/h (5 Bft) 95,83 %
11.09.2017 21:16 14,2 C 13,9 C 12,2 C 83 % 0 lf 998,3 hPa 0,0 l/m 0 min 0 min 0 W/m 18,8 km/h (3 Bft) 95,83 %
11.09.2017 21:18 14,2 C 13,9 C 12,2 C 84 % 0 lf 998,3 hPa 0,0 l/m 0 min 0 min 5 W/m 27,2 km/h (4 Bft) 91,67 %
11.09.2017 21:20 14,2 C 13,9 C 12,2 C 84 % 0 lf 998,3 hPa 0,0 l/m 0 min 0 min 5 W/m 16,7 km/h (3 Bft) 91,30 %
11.09.2017 21:22 14,2 C 13,9 C 12,2 C 84 % 0 lf 998,3 hPa 0,0 l/m 0 min 0 min 0 W/m 20,9 km/h (4 Bft) 95,74 %
11.09.2017 21:24 14,2 C 13,3 C 12,2 C 84 % 0 lf 998,3 hPa 0,0 l/m 0 min 0 min 0 W/m 18,8 km/h (3 Bft) 95,74 %
11.09.2017 21:26 14,2 C 13,3 C 12,2 C 84 % 0 lf 998,3 hPa 0,0 l/m 0 min 0 min 0 W/m 16,7 km/h (3 Bft) 91,49 %
11.09.2017 21:28 14,2 C 13,9 C 12,2 C 84 % 0 lf 998,4 hPa 0,0 l/m 0 min 0 min 1 W/m 27,2 km/h (4 Bft) 95,74 %
11.09.2017 21:30 14,1 C 13,9 C 12,2 C 84 % 0 lf 998,4 hPa 0,0 l/m 0 min 0 min 2 W/m 33,5 km/h (5 Bft) 95,74 %
11.09.2017 21:32 14,1 C 13,9 C 12,2 C 84 % 0 lf 998,3 hPa 0,0 l/m 0 min 0 min 4 W/m 23,0 km/h (4 Bft) 93,62 %
11.09.2017 21:34 14,1 C 13,9 C 12,2 C 84 % 0 lf 998,4 hPa 0,0 l/m 0 min 0 min 0 W/m 23,0 km/h (4 Bft) 93,75 %
11.09.2017 21:36 14,1 C 13,9 C 12,2 C 84 % 0 lf 998,4 hPa 0,0 l/m 0 min 0 min 2 W/m 35,6 km/h (5 Bft) 95,83 %
11.09.2017 21:38 14,1 C 13,9 C 12,2 C 84 % 0 lf 998,5 hPa 0,0 l/m 0 min 0 min 0 W/m 33,5 km/h (5 Bft) 95,65 %
11.09.2017 21:40 14,1 C 13,9 C 12,2 C 84 % 0 lf 998,5 hPa 0,0 l/m 0 min 0 min 0 W/m 25,1 km/h (4 Bft) 93,62 %
11.09.2017 21:42 14,1 C 13,9 C 12,2 C 84 % 0 lf 998,5 hPa 0,0 l/m 0 min 0 min 0 W/m 33,5 km/h (5 Bft) 95,74 %
11.09.2017 21:44 14,1 C 13,9 C 12,2 C 84 % 0 lf 998,5 hPa 0,0 l/m 0 min 0 min 0 W/m 29,3 km/h (5 Bft) 93,62 %
11.09.2017 21:46 14,1 C 13,9 C 12,2 C 84 % 0 lf 998,5 hPa 0,0 l/m 0 min 0 min 0 W/m 27,2 km/h (4 Bft) 95,74 %
11.09.2017 21:48 14,1 C 13,9 C 12,2 C 84 % 0 lf 998,6 hPa 0,0 l/m 0 min 0 min 2 W/m 27,2 km/h (4 Bft) 97,87 %
11.09.2017 21:50 14,1 C 13,9 C 12,2 C 84 % 0 lf 998,7 hPa 0,0 l/m 0 min 0 min 1 W/m 27,2 km/h (4 Bft) 97,83 %
11.09.2017 21:52 14,1 C 13,9 C 12,2 C 84 % 0 lf 998,6 hPa 0,0 l/m 0 min 0 min 1 W/m 29,3 km/h (5 Bft) 100,00 %
11.09.2017 21:54 14,2 C 13,9 C 12,2 C 84 % 0 lf 998,6 hPa 0,0 l/m 0 min 0 min 0 W/m 35,6 km/h (5 Bft) 100,00 %
11.09.2017 21:56 14,1 C 13,9 C 12,2 C 84 % 0 lf 998,6 hPa 0,0 l/m 0 min 0 min 0 W/m 23,0 km/h (4 Bft) 100,00 %
11.09.2017 21:58 14,1 C 13,9 C 12,2 C 84 % 0 lf 998,7 hPa 0,0 l/m 0 min 0 min 0 W/m 20,9 km/h (4 Bft) 100,00 %
11.09.2017 22:00 14,1 C 13,9 C 12,2 C 84 % 0 lf 998,7 hPa 0,0 l/m 0 min 0 min 0 W/m 27,2 km/h (4 Bft) 97,87 %
11.09.2017 22:02 14,1 C 13,9 C 12,2 C 84 % 0 lf 998,6 hPa 0,0 l/m 0 min 0 min 0 W/m 25,1 km/h (4 Bft) 97,96 %
11.09.2017 22:04 14,1 C 13,9 C 12,2 C 84 % 0 lf 998,7 hPa 0,0 l/m 0 min 0 min 0 W/m 27,2 km/h (4 Bft) 100,00 %
11.09.2017 22:06 14,1 C 13,9 C 12,2 C 84 % 0 lf 998,6 hPa 0,0 l/m 0 min 0 min 0 W/m 18,8 km/h (3 Bft) 100,00 %
11.09.2017 22:08 14,1 C 13,3 C 12,2 C 84 % 0 lf 998,7 hPa 0,0 l/m 0 min 0 min 0 W/m 14,6 km/h (3 Bft) 100,00 %
11.09.2017 22:10 14,1 C 13,3 C 12,2 C 84 % 0 lf 998,6 hPa 0,0 l/m 0 min 0 min 2 W/m 18,8 km/h (3 Bft) 97,87 %
11.09.2017 22:12 14,0 C 13,3 C 12,2 C 84 % 0 lf 998,7 hPa 0,0 l/m 0 min 0 min 2 W/m 14,6 km/h (3 Bft) 95,74 %
11.09.2017 22:14 14,0 C 13,9 C 12,2 C 84 % 0 lf 998,8 hPa 0,0 l/m 0 min 0 min 0 W/m 29,3 km/h (5 Bft) 97,83 %
11.09.2017 22:16 14,0 C 13,3 C 12,2 C 84 % 0 lf 998,7 hPa 0,0 l/m 0 min 0 min 0 W/m 18,8 km/h (3 Bft) 97,87 %
11.09.2017 22:18 14,0 C 13,3 C 12,2 C 84 % 0 lf 998,8 hPa 0,0 l/m 0 min 0 min 0 W/m 25,1 km/h (4 Bft) 97,87 %
11.09.2017 22:20 14,0 C 13,3 C 12,2 C 84 % 0 lf 998,7 hPa 0,0 l/m 0 min 0 min 4 W/m 23,0 km/h (4 Bft) 95,74 %
11.09.2017 22:22 14,0 C 13,3 C 12,2 C 84 % 0 lf 998,8 hPa 0,0 l/m 0 min 0 min 0 W/m 25,1 km/h (4 Bft) 97,56 %
11.09.2017 22:24 13,9 C 13,3 C 12,2 C 84 % 0 lf 998,7 hPa 0,0 l/m 0 min 0 min 5 W/m 27,2 km/h (4 Bft) 97,92 %
11.09.2017 22:26 13,9 C 13,3 C 12,2 C 84 % 0 lf 998,8 hPa 0,0 l/m 0 min 0 min 3 W/m 18,8 km/h (3 Bft) 97,92 %
11.09.2017 22:28 13,9 C 13,3 C 12,2 C 84 % 0 lf 998,7 hPa 0,0 l/m 0 min 0 min 4 W/m 25,1 km/h (4 Bft) 97,87 %
11.09.2017 22:30 13,9 C 13,3 C 12,2 C 84 % 0 lf 998,7 hPa 0,0 l/m 0 min 0 min 4 W/m 18,8 km/h (3 Bft) 97,87 %
11.09.2017 22:32 13,9 C 13,3 C 12,2 C 84 % 0 lf 998,7 hPa 0,0 l/m 0 min 0 min 5 W/m 20,9 km/h (4 Bft) 97,92 %
11.09.2017 22:34 13,9 C 13,3 C 12,2 C 84 % 0 lf 998,7 hPa 0,0 l/m 0 min 0 min 0 W/m 20,9 km/h (4 Bft) 93,75 %
11.09.2017 22:36 13,9 C 13,9 C 12,2 C 84 % 0 lf 998,8 hPa 0,0 l/m 0 min 0 min 4 W/m 27,2 km/h (4 Bft) 87,50 %
11.09.2017 22:38 13,9 C 13,9 C 12,2 C 84 % 0 lf 998,8 hPa 0,0 l/m 0 min 0 min 2 W/m 18,8 km/h (3 Bft) 97,83 %
11.09.2017 22:40 13,9 C 13,9 C 12,2 C 84 % 0 lf 998,8 hPa 0,0 l/m 0 min 0 min 0 W/m 29,3 km/h (5 Bft) 93,62 %
11.09.2017 22:42 13,9 C 13,9 C 12,2 C 84 % 0 lf 998,7 hPa 0,0 l/m 0 min 0 min 0 W/m 29,3 km/h (5 Bft) 100,00 %
11.09.2017 22:44 13,9 C 13,9 C 12,2 C 84 % 0 lf 998,7 hPa 0,0 l/m 0 min 0 min 0 W/m 25,1 km/h (4 Bft) 97,87 %
11.09.2017 22:46 13,9 C 13,3 C 12,2 C 84 % 0 lf 998,7 hPa 0,0 l/m 0 min 0 min 2 W/m 18,8 km/h (3 Bft) 97,87 %
11.09.2017 22:48 13,9 C 13,3 C 12,2 C 84 % 0 lf 998,7 hPa 0,0 l/m 0 min 0 min 5 W/m 18,8 km/h (3 Bft) 100,00 %
11.09.2017 22:50 13,9 C 13,9 C 12,2 C 84 % 0 lf 998,7 hPa 0,0 l/m 0 min 0 min 5 W/m 29,3 km/h (5 Bft) 100,00 %
11.09.2017 22:52 13,9 C 13,9 C 12,2 C 84 % 0 lf 998,8 hPa 0,0 l/m 0 min 0 min 5 W/m 29,3 km/h (5 Bft) 100,00 %
11.09.2017 22:54 13,9 C 13,9 C 12,2 C 84 % 0 lf 998,8 hPa 0,0 l/m 0 min 0 min 5 W/m 29,3 km/h (5 Bft) 97,87 %
11.09.2017 22:56 13,9 C 13,3 C 12,2 C 84 % 0 lf 998,8 hPa 0,0 l/m 0 min 0 min 5 W/m 14,6 km/h (3 Bft) 100,00 %
11.09.2017 22:58 13,9 C 13,3 C 12,2 C 84 % 0 lf 998,8 hPa 0,0 l/m 0 min 0 min 5 W/m 20,9 km/h (4 Bft) 100,00 %
11.09.2017 23:00 13,9 C 13,9 C 12,2 C 84 % 0 lf 998,8 hPa 0,0 l/m 0 min 0 min 0 W/m 25,1 km/h (4 Bft) 100,00 %
11.09.2017 23:02 13,9 C 13,9 C 12,2 C 84 % 0 lf 998,9 hPa 0,0 l/m 0 min 0 min 0 W/m 27,2 km/h (4 Bft) 97,87 %
11.09.2017 23:04 13,9 C 13,9 C 12,2 C 84 % 0 lf 998,8 hPa 0,0 l/m 0 min 0 min 0 W/m 27,2 km/h (4 Bft) 100,00 %
11.09.2017 23:06 14,0 C 13,9 C 12,2 C 84 % 0 lf 998,9 hPa 0,0 l/m 0 min 0 min 3 W/m 23,0 km/h (4 Bft) 97,87 %
11.09.2017 23:08 14,0 C 13,9 C 12,2 C 84 % 0 lf 998,9 hPa 0,0 l/m 0 min 0 min 1 W/m 20,9 km/h (4 Bft) 97,87 %
11.09.2017 23:10 14,0 C 13,9 C 12,2 C 84 % 0 lf 998,9 hPa 0,0 l/m 0 min 0 min 0 W/m 31,4 km/h (5 Bft) 97,56 %
11.09.2017 23:12 14,0 C 13,9 C 12,2 C 84 % 0 lf 998,9 hPa 0,0 l/m 0 min 0 min 0 W/m 20,9 km/h (4 Bft) 97,92 %
11.09.2017 23:14 14,0 C 13,9 C 12,2 C 84 % 0 lf 999,0 hPa 0,0 l/m 0 min 0 min 0 W/m 25,1 km/h (4 Bft) 100,00 %
11.09.2017 23:16 14,0 C 13,9 C 12,2 C 84 % 0 lf 998,9 hPa 0,0 l/m 0 min 0 min 5 W/m 27,2 km/h (4 Bft) 97,92 %
11.09.2017 23:18 14,0 C 13,9 C 12,2 C 84 % 0 lf 999,1 hPa 0,0 l/m 0 min 0 min 5 W/m 23,0 km/h (4 Bft) 97,87 %
11.09.2017 23:20 14,0 C 13,9 C 12,2 C 84 % 0 lf 999,0 hPa 0,0 l/m 0 min 0 min 3 W/m 29,3 km/h (5 Bft) 97,92 %
11.09.2017 23:22 14,1 C 13,9 C 12,8 C 84 % 0 lf 999,1 hPa 0,0 l/m 0 min 0 min 1 W/m 31,4 km/h (5 Bft) 97,87 %
11.09.2017 23:24 14,2 C 13,9 C 12,8 C 84 % 0 lf 999,0 hPa 0,0 l/m 0 min 0 min 5 W/m 25,1 km/h (4 Bft) 97,87 %
11.09.2017 23:26 14,2 C 13,9 C 12,8 C 84 % 0 lf 999,1 hPa 0,0 l/m 0 min 0 min 5 W/m 29,3 km/h (5 Bft) 100,00 %
11.09.2017 23:28 14,2 C 13,9 C 12,8 C 84 % 0 lf 999,0 hPa 0,0 l/m 0 min 0 min 5 W/m 18,8 km/h (3 Bft) 97,87 %
11.09.2017 23:30 14,2 C 13,9 C 12,8 C 84 % 0 lf 998,9 hPa 0,0 l/m 0 min 0 min 5 W/m 29,3 km/h (5 Bft) 100,00 %
11.09.2017 23:32 14,2 C 13,9 C 12,8 C 84 % 0 lf 998,9 hPa 0,0 l/m 0 min 0 min 5 W/m 25,1 km/h (4 Bft) 100,00 %
11.09.2017 23:34 14,2 C 14,4 C 12,8 C 84 % 0 lf 999,0 hPa 0,0 l/m 0 min 0 min 1 W/m 35,6 km/h (5 Bft) 95,74 %
11.09.2017 23:36 14,2 C 14,4 C 12,8 C 83 % 0 lf 999,1 hPa 0,0 l/m 0 min 0 min 5 W/m 35,6 km/h (5 Bft) 97,83 %
11.09.2017 23:38 14,2 C 14,4 C 12,8 C 83 % 0 lf 999,1 hPa 0,0 l/m 0 min 0 min 5 W/m 29,3 km/h (5 Bft) 100,00 %
11.09.2017 23:40 14,2 C 14,4 C 12,8 C 83 % 0 lf 999,0 hPa 0,0 l/m 0 min 0 min 3 W/m 35,6 km/h (5 Bft) 97,62 %
11.09.2017 23:42 14,2 C 14,4 C 12,8 C 83 % 0 lf 999,1 hPa 0,0 l/m 0 min 0 min 4 W/m 35,6 km/h (5 Bft) 95,74 %
11.09.2017 23:44 14,3 C 14,4 C 12,8 C 83 % 0 lf 999,1 hPa 0,0 l/m 0 min 0 min 4 W/m 33,5 km/h (5 Bft) 95,83 %
11.09.2017 23:46 14,3 C 14,4 C 12,8 C 83 % 0 lf 999,1 hPa 0,0 l/m 0 min 0 min 5 W/m 33,5 km/h (5 Bft) 97,92 %
11.09.2017 23:48 14,4 C 14,4 C 12,8 C 83 % 0 lf 999,2 hPa 0,0 l/m 0 min 0 min 5 W/m 35,6 km/h (5 Bft) 97,92 %
11.09.2017 23:50 14,4 C 14,4 C 12,8 C 82 % 0 lf 999,2 hPa 0,0 l/m 0 min 0 min 5 W/m 31,4 km/h (5 Bft) 93,75 %
11.09.2017 23:52 14,4 C 14,4 C 12,8 C 83 % 0 lf 999,1 hPa 0,0 l/m 0 min 0 min 5 W/m 25,1 km/h (4 Bft) 95,74 %
11.09.2017 23:54 14,4 C 14,4 C 12,8 C 82 % 0 lf 999,2 hPa 0,0 l/m 0 min 0 min 5 W/m 27,2 km/h (4 Bft) 89,36 %
11.09.2017 23:56 14,4 C 14,4 C 12,8 C 82 % 0 lf 999,1 hPa 0,0 l/m 0 min 0 min 5 W/m 31,4 km/h (5 Bft) 91,49 %
11.09.2017 23:58 14,4 C 13,9 C 12,8 C 82 % 0 lf 999,1 hPa 0,0 l/m 0 min 0 min 5 W/m 31,4 km/h (5 Bft) 89,13 %
_ Min-Zeit 08:26 07:32 07:30 14:20 00:00 06:34 - - - - 06:20 00:02
Minimum _ 13,5 C 12,8 C 11,7 C 64 % 0 lf 994,6 hPa - - - - 8,4 km/h (2 Bft) 86,49 %
_ Max-Zeit 14:16 12:54 12:48 05:24 11:28 23:48 17:48 12:10 18:10 14:16 13:58 00:44
Maximum _ 18,5 C 27,2 C 21,7 C 92 % 15 lf 999,2 hPa 0,2 l/m 4 min 4 min 860 W/m 52,3 km/h
W-SW (7 Bft)
100,00 %
Durchschnitt _ 15,3 C 16,2 C 14,3 C 81 % 1 lf 996,5 hPa #0,4 l/m #4:56 h #2:30 h 183 W/m 27,1 km/h (4 Bft) 96,57 %
© 2017 W. Hausmann